Observation data for Hackberry on 06/20/2019      Previous  Date  Next       Current Mesonet Observations  Soil Data  Daily Summary Page  Observations in Plain Language
KHA3 200500Z 12007KT 24/21 A2978 RMK A01 T02390205  RH  081%=      5-min Rain = 0
KHA3 200501Z 11008KT 24/21 A2978 RMK A01 T02390205  RH  081%=      5-min Rain = 0
KHA3 200502Z 12008KT 24/21 A2978 RMK A01 T02400205  RH  081%=      5-min Rain = 0
KHA3 200503Z 12008KT 24/20 A2978 RMK A01 T02400204  RH  080%=      5-min Rain = 0
KHA3 200504Z 12008KT 24/20 A2978 RMK A01 T02400204  RH  080%=      5-min Rain = 0
KHA3 200505Z 12008KT 24/20 A2978 RMK A01 T02410204  RH  080%=      5-min Rain = 0
KHA3 200506Z 12008KT 24/20 A2978 RMK A01 T02410203  RH  079%=      5-min Rain = 0
KHA3 200507Z 12008KT 24/20 A2978 RMK A01 T02420203  RH  079%=      5-min Rain = 0
KHA3 200508Z 12008KT 24/20 A2978 RMK A01 T02420203  RH  078%=      5-min Rain = 0
KHA3 200509Z 12008KT 24/20 A2978 RMK A01 T02430202  RH  078%=      5-min Rain = 0
KHA3 200510Z 12009KT 24/20 A2978 RMK A01 T02440202  RH  077%=      5-min Rain = 0
KHA3 200511Z 12010KT 25/20 A2978 RMK A01 T02450201  RH  077%=      5-min Rain = 0
KHA3 200512Z 12010KT 25/20 A2978 RMK A01 T02460201  RH  076%=      5-min Rain = 0
KHA3 200513Z 12010KT 25/20 A2978 RMK A01 T02460201  RH  076%=      5-min Rain = 0
KHA3 200514Z 12010KT 25/20 A2978 RMK A01 T02460201  RH  076%=      5-min Rain = 0
KHA3 200515Z 12010KT 25/20 A2978 RMK A01 T02470200  RH  075%=      5-min Rain = 0
KHA3 200516Z 12010KT 25/20 A2978 RMK A01 T02480200  RH  075%=      5-min Rain = 0
KHA3 200517Z 12010KT 25/20 A2978 RMK A01 T02480200  RH  075%=      5-min Rain = 0
KHA3 200518Z 12009KT 25/20 A2978 RMK A01 T02480199  RH  074%=      5-min Rain = 0
KHA3 200519Z 12009KT 25/20 A2978 RMK A01 T02490200  RH  074%=      5-min Rain = 0
KHA3 200520Z 12009KT 25/20 A2977 RMK A01 T02490200  RH  074%=      5-min Rain = 0
KHA3 200521Z 12008KT 25/20 A2977 RMK A01 T02480200  RH  075%=      5-min Rain = 0
KHA3 200522Z 12008KT 25/20 A2977 RMK A01 T02470199  RH  075%=      5-min Rain = 0
KHA3 200523Z 12008KT 25/20 A2977 RMK A01 T02470199  RH  075%=      5-min Rain = 0
KHA3 200524Z 12007KT 25/20 A2977 RMK A01 T02470200  RH  075%=      5-min Rain = 0
KHA3 200525Z 12007KT 25/20 A2977 RMK A01 T02460200  RH  075%=      5-min Rain = 0
KHA3 200526Z 12007KT 25/20 A2977 RMK A01 T02460200  RH  076%=      5-min Rain = 0
KHA3 200527Z 13007KT 25/20 A2977 RMK A01 T02460200  RH  076%=      5-min Rain = 0
KHA3 200528Z 13007KT 25/20 A2977 RMK A01 T02450200  RH  076%=      5-min Rain = 0
KHA3 200529Z 13008KT 25/20 A2978 RMK A01 T02450200  RH  076%=      5-min Rain = 0
KHA3 200530Z 13007KT 25/20 A2978 RMK A01 T02450201  RH  076%=      5-min Rain = 0
KHA3 200531Z 13008KT 25/20 A2978 RMK A01 T02450201  RH  076%=      5-min Rain = 0
KHA3 200532Z 13008KT 25/20 A2978 RMK A01 T02460201  RH  076%=      5-min Rain = 0
KHA3 200533Z 13008KT 25/20 A2977 RMK A01 T02460201  RH  076%=      5-min Rain = 0
KHA3 200534Z 13007KT 25/20 A2977 RMK A01 T02460202  RH  076%=      5-min Rain = 0
KHA3 200535Z 13007KT 25/20 A2977 RMK A01 T02460202  RH  076%=      5-min Rain = 0
KHA3 200536Z 13007KT 25/20 A2977 RMK A01 T02460202  RH  077%=      5-min Rain = 0
KHA3 200537Z 14006KT 25/20 A2977 RMK A01 T02450202  RH  077%=      5-min Rain = 0
KHA3 200538Z 14006KT 25/20 A2978 RMK A01 T02450202  RH  077%=      5-min Rain = 0
KHA3 200539Z 14006KT 24/20 A2978 RMK A01 T02440202  RH  077%=      5-min Rain = 0
KHA3 200540Z 13006KT 24/20 A2978 RMK A01 T02430202  RH  078%=      5-min Rain = 0
KHA3 200541Z 13007KT 24/20 A2977 RMK A01 T02430202  RH  078%=      5-min Rain = 0
KHA3 200542Z 13007KT 24/20 A2977 RMK A01 T02410201  RH  078%=      5-min Rain = 0
KHA3 200543Z 13008KT 24/20 A2977 RMK A01 T02410200  RH  078%=      5-min Rain = 0
KHA3 200544Z 13008KT 24/20 A2977 RMK A01 T02420200  RH  077%=      5-min Rain = 0
KHA3 200545Z 13008KT 24/20 A2977 RMK A01 T02420200  RH  077%=      5-min Rain = 0
KHA3 200546Z 13008KT 24/20 A2978 RMK A01 T02430199  RH  077%=      5-min Rain = 0
KHA3 200547Z 14007KT 24/20 A2978 RMK A01 T02440199  RH  076%=      5-min Rain = 0
KHA3 200548Z 14008KT 25/20 A2978 RMK A01 T02450200  RH  076%=      5-min Rain = 0
KHA3 200549Z 14007KT 24/20 A2978 RMK A01 T02440201  RH  077%=      5-min Rain = 0
KHA3 200550Z 14007KT 24/20 A2978 RMK A01 T02410201  RH  078%=      5-min Rain = 0
KHA3 200551Z 14008KT 24/20 A2978 RMK A01 T02380201  RH  080%=      5-min Rain = 0
KHA3 200552Z 14008KT 24/20 A2978 RMK A01 T02360201  RH  081%=      5-min Rain = 0
KHA3 200553Z 14008KT 24/20 A2978 RMK A01 T02350200  RH  081%=      5-min Rain = 0
KHA3 200554Z 13007KT 24/20 A2978 RMK A01 T02350200  RH  081%=      5-min Rain = 0
KHA3 200555Z 13007KT 24/20 A2978 RMK A01 T02360199  RH  080%=      5-min Rain = 0
KHA3 200556Z 13007KT 24/20 A2978 RMK A01 T02380200  RH  079%=      5-min Rain = 0
KHA3 200557Z 13006KT 24/20 A2978 RMK A01 T02390200  RH  079%=      5-min Rain = 0
KHA3 200558Z 13006KT 24/20 A2978 RMK A01 T02390200  RH  078%=      5-min Rain = 0
KHA3 200559Z 13006KT 24/20 A2978 RMK A01 T02390200  RH  078%=      5-min Rain = 0
KHA3 200600Z 13006KT 24/20 A2978 RMK A01 T02390199  RH  078%=      5-min Rain = 0
KHA3 200601Z 13006KT 24/20 A2978 RMK A01 T02390199  RH  078%=      5-min Rain = 0
KHA3 200602Z 14006KT 24/20 A2978 RMK A01 T02390197  RH  077%=      5-min Rain = 0
KHA3 200603Z 14007KT 24/20 A2978 RMK A01 T02410197  RH  077%=      5-min Rain = 0
KHA3 200604Z 14007KT 24/20 A2978 RMK A01 T02420198  RH  077%=      5-min Rain = 0
KHA3 200605Z 14007KT 24/20 A2978 RMK A01 T02410199  RH  077%=      5-min Rain = 0
KHA3 200606Z 14007KT 24/20 A2978 RMK A01 T02390199  RH  078%=      5-min Rain = 0
KHA3 200607Z 14007KT 24/20 A2978 RMK A01 T02370198  RH  079%=      5-min Rain = 0
KHA3 200608Z 14008KT 24/20 A2978 RMK A01 T02350198  RH  080%=      5-min Rain = 0
KHA3 200609Z 13007KT 23/20 A2978 RMK A01 T02340197  RH  080%=      5-min Rain = 0
KHA3 200610Z 13007KT 23/20 A2978 RMK A01 T02340197  RH  079%=      5-min Rain = 0
KHA3 200611Z 13007KT 24/20 A2978 RMK A01 T02360195  RH  078%=      5-min Rain = 0
KHA3 200612Z 13007KT 24/20 A2978 RMK A01 T02400197  RH  077%=      5-min Rain = 0
KHA3 200613Z 13008KT 24/20 A2978 RMK A01 T02410196  RH  076%=      5-min Rain = 0
KHA3 200614Z 13008KT 24/20 A2978 RMK A01 T02430196  RH  075%=      5-min Rain = 0
KHA3 200615Z 13007KT 24/20 A2978 RMK A01 T02430195  RH  074%=      5-min Rain = 0
KHA3 200616Z 14009KT 24/19 A2978 RMK A01 T02440194  RH  074%=      5-min Rain = 0
KHA3 200617Z 14008KT 25/19 A2978 RMK A01 T02460194  RH  073%=      5-min Rain = 0
KHA3 200618Z 14009KT 25/19 A2978 RMK A01 T02480193  RH  072%=      5-min Rain = 0
KHA3 200619Z 14009KT 25/20 A2978 RMK A01 T02500195  RH  071%=      5-min Rain = 0
KHA3 200620Z 14010KT 25/20 A2978 RMK A01 T02490195  RH  072%=      5-min Rain = 0
KHA3 200621Z 14008KT 25/20 A2978 RMK A01 T02480196  RH  073%=      5-min Rain = 0
KHA3 200622Z 14008KT 24/20 A2978 RMK A01 T02440195  RH  074%=      5-min Rain = 0
KHA3 200623Z 14008KT 24/20 A2978 RMK A01 T02420195  RH  075%=      5-min Rain = 0
KHA3 200624Z 14009KT 24/19 A2978 RMK A01 T02410194  RH  075%=      5-min Rain = 0
KHA3 200625Z 14008KT 24/19 A2978 RMK A01 T02420194  RH  075%=      5-min Rain = 0
KHA3 200626Z 14009KT 24/19 A2978 RMK A01 T02430194  RH  074%=      5-min Rain = 0
KHA3 200627Z 14009KT 24/19 A2978 RMK A01 T02430194  RH  074%=      5-min Rain = 0
KHA3 200628Z 14008KT 24/19 A2978 RMK A01 T02430194  RH  074%=      5-min Rain = 0
KHA3 200629Z 13007KT 24/19 A2978 RMK A01 T02430194  RH  074%=      5-min Rain = 0
KHA3 200630Z 13008KT 24/19 A2978 RMK A01 T02430194  RH  074%=      5-min Rain = 0
KHA3 200631Z 13009KT 24/19 A2977 RMK A01 T02430194  RH  074%=      5-min Rain = 0
KHA3 200632Z 13009KT 24/19 A2977 RMK A01 T02430193  RH  073%=      5-min Rain = 0
KHA3 200633Z 13008KT 24/19 A2977 RMK A01 T02430193  RH  073%=      5-min Rain = 0
KHA3 200634Z 13009KT 24/19 A2977 RMK A01 T02440192  RH  073%=      5-min Rain = 0
KHA3 200635Z 14010KT 25/19 A2977 RMK A01 T02460192  RH  072%=      5-min Rain = 0
KHA3 200636Z 14009KT 25/19 A2977 RMK A01 T02470192  RH  071%=      5-min Rain = 0
KHA3 200637Z 14009KT 25/19 A2977 RMK A01 T02480192  RH  071%=      5-min Rain = 0
KHA3 200638Z 14010KT 25/19 A2977 RMK A01 T02480192  RH  071%=      5-min Rain = 0
KHA3 200639Z 14009KT 25/19 A2977 RMK A01 T02480193  RH  071%=      5-min Rain = 0
KHA3 200640Z 14011KT 25/19 A2977 RMK A01 T02470192  RH  072%=      5-min Rain = 0
KHA3 200641Z 14010KT 25/19 A2977 RMK A01 T02470192  RH  072%=      5-min Rain = 0
KHA3 200642Z 14009KT 25/19 A2977 RMK A01 T02470193  RH  072%=      5-min Rain = 0
KHA3 200643Z 14010KT 25/19 A2977 RMK A01 T02450193  RH  072%=      5-min Rain = 0
KHA3 200644Z 14010KT 25/19 A2978 RMK A01 T02450192  RH  072%=      5-min Rain = 0
KHA3 200645Z 14009KT 25/19 A2978 RMK A01 T02450193  RH  073%=      5-min Rain = 0
KHA3 200646Z 14009KT 24/19 A2978 RMK A01 T02440192  RH  073%=      5-min Rain = 0
KHA3 200647Z 14009KT 24/19 A2978 RMK A01 T02440192  RH  073%=      5-min Rain = 0
KHA3 200648Z 14009KT 24/19 A2978 RMK A01 T02440193  RH  073%=      5-min Rain = 0
KHA3 200649Z 15009KT 24/19 A2978 RMK A01 T02410193  RH  074%=      5-min Rain = 0
KHA3 200650Z 14008KT 24/19 A2978 RMK A01 T02400193  RH  075%=      5-min Rain = 0
KHA3 200651Z 14009KT 24/19 A2978 RMK A01 T02390193  RH  076%=      5-min Rain = 0
KHA3 200652Z 15008KT 24/19 A2978 RMK A01 T02370193  RH  076%=      5-min Rain = 0
KHA3 200653Z 15009KT 24/19 A2978 RMK A01 T02360193  RH  077%=      5-min Rain = 0
KHA3 200654Z 14008KT 24/19 A2978 RMK A01 T02350193  RH  078%=      5-min Rain = 0
KHA3 200655Z 15008KT 23/19 A2978 RMK A01 T02340193  RH  078%=      5-min Rain = 0
KHA3 200656Z 14008KT 23/19 A2978 RMK A01 T02330193  RH  078%=      5-min Rain = 0
KHA3 200657Z 14007KT 23/19 A2979 RMK A01 T02330193  RH  078%=      5-min Rain = 0
KHA3 200658Z 14008KT 23/19 A2979 RMK A01 T02330193  RH  078%=      5-min Rain = 0
KHA3 200659Z 14007KT 23/19 A2979 RMK A01 T02340193  RH  078%=      5-min Rain = 0
KHA3 200700Z 14007KT 23/19 A2979 RMK A01 T02340194  RH  078%=      5-min Rain = 0
KHA3 200701Z 14007KT 23/19 A2979 RMK A01 T02340194  RH  078%=      5-min Rain = 0
KHA3 200702Z 13008KT 24/20 A2978 RMK A01 T02350195  RH  078%=      5-min Rain = 0
KHA3 200703Z 14008KT 24/20 A2978 RMK A01 T02370197  RH  078%=      5-min Rain = 0
KHA3 200704Z 14008KT 24/20 A2978 RMK A01 T02380198  RH  078%=      5-min Rain = 0
KHA3 200705Z 14008KT 24/20 A2978 RMK A01 T02380198  RH  078%=      5-min Rain = 0
KHA3 200706Z 14008KT 24/20 A2979 RMK A01 T02390198  RH  078%=      5-min Rain = 0
KHA3 200707Z 14009KT 24/20 A2978 RMK A01 T02390199  RH  078%=      5-min Rain = 0
KHA3 200708Z 15007KT 24/20 A2978 RMK A01 T02390200  RH  079%=      5-min Rain = 0
KHA3 200709Z 15006KT 24/20 A2978 RMK A01 T02370199  RH  079%=      5-min Rain = 0
KHA3 200710Z 15007KT 24/20 A2978 RMK A01 T02360199  RH  080%=      5-min Rain = 0
KHA3 200711Z 15008KT 24/20 A2978 RMK A01 T02350199  RH  080%=      5-min Rain = 0
KHA3 200712Z 15008KT 23/20 A2978 RMK A01 T02340199  RH  081%=      5-min Rain = 0
KHA3 200713Z 15008KT 23/20 A2978 RMK A01 T02330199  RH  081%=      5-min Rain = 0
KHA3 200714Z 16008KT 23/20 A2978 RMK A01 T02330199  RH  081%=      5-min Rain = 0
KHA3 200715Z 15008KT 23/20 A2978 RMK A01 T02320199  RH  082%=      5-min Rain = 0
KHA3 200716Z 16008KT 23/20 A2978 RMK A01 T02320199  RH  082%=      5-min Rain = 0
KHA3 200717Z 15008KT 23/20 A2978 RMK A01 T02310199  RH  082%=      5-min Rain = 0
KHA3 200718Z 15008KT 23/20 A2978 RMK A01 T02310199  RH  082%=      5-min Rain = 0
KHA3 200719Z 16008KT 23/20 A2978 RMK A01 T02310199  RH  082%=      5-min Rain = 0
KHA3 200720Z 16007KT 23/20 A2978 RMK A01 T02320200  RH  082%=      5-min Rain = 0
KHA3 200721Z 15008KT 23/20 A2978 RMK A01 T02310199  RH  082%=      5-min Rain = 0
KHA3 200722Z 15007KT 23/20 A2978 RMK A01 T02310199  RH  082%=      5-min Rain = 0
KHA3 200723Z 15007KT 23/20 A2978 RMK A01 T02310199  RH  082%=      5-min Rain = 0
KHA3 200724Z 15007KT 23/20 A2978 RMK A01 T02300199  RH  082%=      5-min Rain = 0
KHA3 200725Z 15007KT 23/20 A2978 RMK A01 T02300199  RH  083%=      5-min Rain = 0
KHA3 200726Z 15007KT 23/20 A2978 RMK A01 T02300199  RH  083%=      5-min Rain = 0
KHA3 200727Z 15008KT 23/20 A2978 RMK A01 T02290198  RH  083%=      5-min Rain = 0
KHA3 200728Z 15009KT 23/20 A2978 RMK A01 T02280199  RH  083%=      5-min Rain = 0
KHA3 200729Z 15009KT 23/20 A2978 RMK A01 T02280199  RH  084%=      5-min Rain = 0
KHA3 200730Z 15008KT 23/20 A2978 RMK A01 T02280199  RH  084%=      5-min Rain = 0
KHA3 200731Z 15008KT 23/20 A2978 RMK A01 T02280199  RH  084%=      5-min Rain = 0
KHA3 200732Z 15008KT 23/20 A2978 RMK A01 T02280199  RH  084%=      5-min Rain = 0
KHA3 200733Z 15008KT 23/20 A2978 RMK A01 T02280199  RH  084%=      5-min Rain = 0
KHA3 200734Z 15008KT 23/20 A2978 RMK A01 T02280199  RH  084%=      5-min Rain = 0
KHA3 200735Z 15009KT 23/20 A2978 RMK A01 T02270199  RH  084%=      5-min Rain = 0
KHA3 200736Z 15009KT 23/20 A2978 RMK A01 T02270199  RH  084%=      5-min Rain = 0
KHA3 200737Z 16009KT 23/20 A2978 RMK A01 T02270199  RH  084%=      5-min Rain = 0
KHA3 200738Z 16009KT 23/20 A2978 RMK A01 T02270200  RH  084%=      5-min Rain = 0
KHA3 200739Z 15009KT 23/20 A2977 RMK A01 T02270200  RH  085%=      5-min Rain = 0
KHA3 200740Z 15009KT 23/20 A2977 RMK A01 T02270199  RH  084%=      5-min Rain = 0
KHA3 200741Z 15009KT 23/20 A2977 RMK A01 T02280200  RH  084%=      5-min Rain = 0
KHA3 200742Z 15009KT 23/20 A2977 RMK A01 T02290200  RH  084%=      5-min Rain = 0
KHA3 200743Z 14008KT 23/20 A2977 RMK A01 T02280200  RH  084%=      5-min Rain = 0
KHA3 200744Z 15008KT 23/20 A2977 RMK A01 T02280200  RH  084%=      5-min Rain = 0
KHA3 200745Z 15008KT 23/20 A2977 RMK A01 T02270200  RH  085%=      5-min Rain = 0
KHA3 200746Z 15008KT 23/20 A2977 RMK A01 T02260200  RH  085%=      5-min Rain = 0
KHA3 200747Z 15009KT 23/20 A2978 RMK A01 T02250200  RH  086%=      5-min Rain = 0
KHA3 200748Z 15010KT 23/20 A2977 RMK A01 T02250200  RH  086%=      5-min Rain = 0
KHA3 200749Z 15009KT 23/20 A2977 RMK A01 T02260200  RH  085%=      5-min Rain = 0
KHA3 200750Z 15010KT 23/20 A2977 RMK A01 T02270200  RH  085%=      5-min Rain = 0
KHA3 200751Z 15010KT 23/20 A2977 RMK A01 T02270200  RH  084%=      5-min Rain = 0
KHA3 200752Z 16009KT 23/20 A2978 RMK A01 T02280200  RH  084%=      5-min Rain = 0
KHA3 200753Z 16010KT 23/20 A2977 RMK A01 T02290200  RH  084%=      5-min Rain = 0
KHA3 200754Z 16010KT 23/20 A2978 RMK A01 T02280200  RH  084%=      5-min Rain = 0
KHA3 200755Z 16011KT 23/20 A2978 RMK A01 T02290201  RH  084%=      5-min Rain = 0
KHA3 200756Z 16012KT 23/20 A2978 RMK A01 T02290200  RH  084%=      5-min Rain = 0
KHA3 200757Z 16012KT 23/20 A2978 RMK A01 T02280200  RH  084%=      5-min Rain = 0
KHA3 200758Z 16012KT 23/20 A2978 RMK A01 T02290201  RH  084%=      5-min Rain = 0
KHA3 200759Z 16011KT 23/20 A2977 RMK A01 T02280201  RH  084%=      5-min Rain = 0
KHA3 200800Z 16011KT 23/20 A2977 RMK A01 T02280201  RH  084%=      5-min Rain = 0
KHA3 200801Z 16011KT 23/20 A2977 RMK A01 T02280201  RH  085%=      5-min Rain = 0
KHA3 200802Z 17010KT 23/20 A2977 RMK A01 T02270201  RH  085%=      5-min Rain = 0
KHA3 200803Z 16011KT 23/20 A2977 RMK A01 T02280201  RH  085%=      5-min Rain = 0
KHA3 200804Z 17011KT 23/20 A2977 RMK A01 T02280201  RH  085%=      5-min Rain = 0
KHA3 200805Z 17012KT 23/20 A2977 RMK A01 T02280201  RH  085%=      5-min Rain = 0
KHA3 200806Z 17010KT 23/20 A2977 RMK A01 T02280201  RH  085%=      5-min Rain = 0
KHA3 200807Z 17012KT 23/20 A2977 RMK A01 T02280201  RH  085%=      5-min Rain = 0
KHA3 200808Z 17012KT 23/20 A2977 RMK A01 T02280201  RH  085%=      5-min Rain = 0
KHA3 200809Z 17012KT 23/20 A2977 RMK A01 T02280201  RH  084%=      5-min Rain = 0
KHA3 200810Z 17012KT 23/20 A2977 RMK A01 T02290200  RH  084%=      5-min Rain = 0
KHA3 200811Z 17012KT 23/20 A2977 RMK A01 T02290200  RH  084%=      5-min Rain = 0
KHA3 200812Z 17012KT 23/20 A2977 RMK A01 T02300201  RH  084%=      5-min Rain = 0
KHA3 200813Z 17011KT 23/20 A2977 RMK A01 T02300200  RH  083%=      5-min Rain = 0
KHA3 200814Z 17012KT 23/20 A2977 RMK A01 T02290200  RH  083%=      5-min Rain = 0
KHA3 200815Z 17011KT 23/20 A2976 RMK A01 T02290200  RH  084%=      5-min Rain = 0
KHA3 200816Z 17011KT 23/20 A2976 RMK A01 T02290200  RH  083%=      5-min Rain = 0
KHA3 200817Z 17010KT 23/20 A2977 RMK A01 T02290200  RH  084%=      5-min Rain = 0
KHA3 200818Z 17011KT 23/20 A2977 RMK A01 T02290200  RH  084%=      5-min Rain = 0
KHA3 200819Z 17011KT 23/20 A2977 RMK A01 T02290200  RH  084%=      5-min Rain = 0
KHA3 200820Z 17012KT 23/20 A2977 RMK A01 T02290200  RH  084%=      5-min Rain = 0
KHA3 200821Z 17011KT 23/20 A2977 RMK A01 T02280200  RH  084%=      5-min Rain = 0
KHA3 200822Z 18011KT 23/20 A2976 RMK A01 T02280200  RH  084%=      5-min Rain = 0
KHA3 200823Z 18011KT 23/20 A2976 RMK A01 T02280200  RH  084%=      5-min Rain = 0
KHA3 200824Z 18011KT 23/20 A2976 RMK A01 T02280200  RH  084%=      5-min Rain = 0
KHA3 200825Z 18010KT 23/20 A2976 RMK A01 T02280200  RH  084%=      5-min Rain = 0
KHA3 200826Z 18010KT 23/20 A2976 RMK A01 T02270200  RH  085%=      5-min Rain = 0
KHA3 200827Z 17010KT 23/20 A2976 RMK A01 T02270200  RH  085%=      5-min Rain = 0
KHA3 200828Z 17009KT 23/20 A2976 RMK A01 T02270200  RH  085%=      5-min Rain = 0
KHA3 200829Z 18009KT 23/20 A2976 RMK A01 T02260200  RH  085%=      5-min Rain = 0
KHA3 200830Z 17009KT 23/20 A2976 RMK A01 T02250200  RH  086%=      5-min Rain = 0
KHA3 200831Z 18009KT 23/20 A2976 RMK A01 T02250200  RH  086%=      5-min Rain = 0
KHA3 200832Z 17009KT 22/20 A2976 RMK A01 T02240199  RH  086%=      5-min Rain = 0
KHA3 200833Z 17009KT 22/20 A2976 RMK A01 T02240200  RH  086%=      5-min Rain = 0
KHA3 200834Z 17009KT 22/20 A2976 RMK A01 T02230199  RH  086%=      5-min Rain = 0
KHA3 200835Z 17009KT 22/20 A2976 RMK A01 T02230200  RH  087%=      5-min Rain = 0
KHA3 200836Z 17009KT 22/20 A2976 RMK A01 T02220199  RH  087%=      5-min Rain = 0
KHA3 200837Z 17008KT 22/20 A2976 RMK A01 T02220200  RH  087%=      5-min Rain = 0
KHA3 200838Z 17009KT 22/20 A2976 RMK A01 T02210199  RH  087%=      5-min Rain = 0
KHA3 200839Z 17009KT 22/20 A2976 RMK A01 T02210199  RH  087%=      5-min Rain = 0
KHA3 200840Z 17009KT 22/20 A2976 RMK A01 T02210199  RH  087%=      5-min Rain = 0
KHA3 200841Z 17009KT 22/20 A2976 RMK A01 T02210199  RH  087%=      5-min Rain = 0
KHA3 200842Z 17009KT 22/20 A2976 RMK A01 T02210199  RH  087%=      5-min Rain = 0
KHA3 200843Z 17008KT 22/20 A2976 RMK A01 T02210199  RH  087%=      5-min Rain = 0
KHA3 200844Z 17009KT 22/20 A2976 RMK A01 T02210199  RH  087%=      5-min Rain = 0
KHA3 200845Z 17008KT 22/20 A2976 RMK A01 T02210199  RH  087%=      5-min Rain = 0
KHA3 200846Z 17009KT 22/20 A2976 RMK A01 T02210199  RH  087%=      5-min Rain = 0
KHA3 200847Z 17008KT 22/20 A2976 RMK A01 T02210199  RH  087%=      5-min Rain = 0
KHA3 200848Z 17008KT 22/20 A2976 RMK A01 T02200198  RH  087%=      5-min Rain = 0
KHA3 200849Z 17008KT 22/20 A2976 RMK A01 T02200198  RH  087%=      5-min Rain = 0
KHA3 200850Z 16008KT 22/20 A2976 RMK A01 T02200198  RH  087%=      5-min Rain = 0
KHA3 200851Z 16008KT 22/20 A2975 RMK A01 T02200198  RH  087%=      5-min Rain = 0
KHA3 200852Z 16008KT 22/20 A2975 RMK A01 T02200198  RH  087%=      5-min Rain = 0
KHA3 200853Z 16008KT 22/20 A2975 RMK A01 T02200198  RH  087%=      5-min Rain = 0
KHA3 200854Z 16008KT 22/20 A2975 RMK A01 T02200197  RH  087%=      5-min Rain = 0
KHA3 200855Z 16008KT 22/20 A2975 RMK A01 T02210198  RH  087%=      5-min Rain = 0
KHA3 200856Z 16007KT 22/20 A2975 RMK A01 T02210198  RH  087%=      5-min Rain = 0
KHA3 200857Z 16008KT 22/20 A2975 RMK A01 T02210198  RH  087%=      5-min Rain = 0
KHA3 200858Z 17007KT 22/20 A2975 RMK A01 T02210198  RH  087%=      5-min Rain = 0
KHA3 200859Z 16007KT 22/20 A2975 RMK A01 T02210198  RH  087%=      5-min Rain = 0
KHA3 200900Z 17007KT 22/20 A2975 RMK A01 T02200197  RH  087%=      5-min Rain = 0
KHA3 200901Z 16007KT 22/20 A2975 RMK A01 T02200197  RH  087%=      5-min Rain = 0
KHA3 200902Z 16007KT 22/20 A2975 RMK A01 T02190197  RH  087%=      5-min Rain = 0
KHA3 200903Z 16007KT 22/20 A2975 RMK A01 T02190197  RH  087%=      5-min Rain = 0
KHA3 200904Z 16007KT 22/20 A2975 RMK A01 T02190197  RH  087%=      5-min Rain = 0
KHA3 200905Z 16007KT 22/20 A2975 RMK A01 T02180197  RH  087%=      5-min Rain = 0
KHA3 200906Z 16007KT 22/20 A2975 RMK A01 T02190197  RH  087%=      5-min Rain = 0
KHA3 200907Z 16007KT 22/20 A2975 RMK A01 T02180196  RH  087%=      5-min Rain = 0
KHA3 200908Z 16007KT 22/20 A2975 RMK A01 T02190197  RH  087%=      5-min Rain = 0
KHA3 200909Z 17007KT 22/20 A2975 RMK A01 T02190197  RH  087%=      5-min Rain = 0
KHA3 200910Z 16006KT 22/20 A2975 RMK A01 T02190197  RH  087%=      5-min Rain = 0
KHA3 200911Z 17006KT 22/20 A2975 RMK A01 T02180197  RH  087%=      5-min Rain = 0
KHA3 200912Z 16006KT 22/20 A2975 RMK A01 T02190197  RH  087%=      5-min Rain = 0
KHA3 200913Z 16006KT 22/20 A2975 RMK A01 T02180196  RH  087%=      5-min Rain = 0
KHA3 200914Z 16007KT 22/20 A2975 RMK A01 T02180196  RH  087%=      5-min Rain = 0
KHA3 200915Z 16008KT 22/20 A2976 RMK A01 T02190196  RH  087%=      5-min Rain = 0
KHA3 200916Z 16008KT 22/20 A2976 RMK A01 T02200197  RH  086%=      5-min Rain = 0
KHA3 200917Z 16007KT 22/20 A2976 RMK A01 T02220197  RH  086%=      5-min Rain = 0
KHA3 200918Z 16006KT 22/20 A2975 RMK A01 T02220197  RH  086%=      5-min Rain = 0
KHA3 200919Z 16006KT 22/20 A2975 RMK A01 T02230197  RH  085%=      5-min Rain = 0
KHA3 200920Z 16007KT 22/20 A2975 RMK A01 T02230197  RH  085%=      5-min Rain = 0
KHA3 200921Z 16007KT 22/20 A2976 RMK A01 T02230197  RH  085%=      5-min Rain = 0
KHA3 200922Z 16006KT 22/20 A2976 RMK A01 T02240197  RH  085%=      5-min Rain = 0
KHA3 200923Z 16006KT 22/20 A2975 RMK A01 T02240197  RH  085%=      5-min Rain = 0
KHA3 200924Z 16006KT 22/20 A2976 RMK A01 T02240197  RH  084%=      5-min Rain = 0
KHA3 200925Z 16007KT 23/20 A2976 RMK A01 T02250197  RH  084%=      5-min Rain = 0
KHA3 200926Z 15006KT 23/20 A2976 RMK A01 T02250197  RH  084%=      5-min Rain = 0
KHA3 200927Z 16006KT 23/20 A2976 RMK A01 T02250197  RH  084%=      5-min Rain = 0
KHA3 200928Z 15006KT 23/20 A2976 RMK A01 T02250197  RH  084%=      5-min Rain = 0
KHA3 200929Z 15005KT 23/20 A2976 RMK A01 T02250197  RH  084%=      5-min Rain = 0
KHA3 200930Z 15006KT 23/20 A2976 RMK A01 T02260197  RH  084%=      5-min Rain = 0
KHA3 200931Z 15007KT 23/20 A2976 RMK A01 T02260197  RH  084%=      5-min Rain = 0
KHA3 200932Z 15007KT 23/20 A2976 RMK A01 T02260197  RH  083%=      5-min Rain = 0
KHA3 200933Z 15007KT 23/20 A2976 RMK A01 T02260197  RH  083%=      5-min Rain = 0
KHA3 200934Z 15007KT 23/20 A2976 RMK A01 T02260197  RH  083%=      5-min Rain = 0
KHA3 200935Z 15007KT 23/20 A2976 RMK A01 T02260197  RH  083%=      5-min Rain = 0
KHA3 200936Z 15007KT 23/20 A2976 RMK A01 T02260197  RH  083%=      5-min Rain = 0
KHA3 200937Z 15007KT 23/20 A2976 RMK A01 T02260197  RH  084%=      5-min Rain = 0
KHA3 200938Z 15007KT 23/20 A2976 RMK A01 T02260197  RH  084%=      5-min Rain = 0
KHA3 200939Z 15007KT 23/20 A2976 RMK A01 T02260197  RH  084%=      5-min Rain = 0
KHA3 200940Z 14006KT 23/20 A2976 RMK A01 T02260196  RH  083%=      5-min Rain = 0
KHA3 200941Z 14006KT 23/20 A2976 RMK A01 T02260196  RH  083%=      5-min Rain = 0
KHA3 200942Z 13006KT 23/20 A2976 RMK A01 T02280196  RH  082%=      5-min Rain = 0
KHA3 200943Z 13005KT 23/20 A2976 RMK A01 T02290197  RH  082%=      5-min Rain = 0
KHA3 200944Z 12004KT 23/20 A2976 RMK A01 T02290196  RH  082%=      5-min Rain = 0
KHA3 200945Z 12005KT 23/20 A2976 RMK A01 T02280196  RH  082%=      5-min Rain = 0
KHA3 200946Z 11004KT 23/20 A2976 RMK A01 T02260195  RH  083%=      5-min Rain = 0
KHA3 200947Z 09003KT 22/19 A2976 RMK A01 T02240194  RH  083%=      5-min Rain = 0
KHA3 200948Z 07002KT 22/19 A2976 RMK A01 T02200193  RH  084%=      5-min Rain = 0
KHA3 200949Z 06002KT 22/19 A2976 RMK A01 T02150190  RH  086%=      5-min Rain = 0
KHA3 200950Z 06003KT 21/19 A2976 RMK A01 T02110189  RH  088%=      5-min Rain = 0
KHA3 200951Z 05003KT 21/19 A2976 RMK A01 T02070190  RH  089%=      5-min Rain = 0
KHA3 200952Z 06004KT 20/19 A2976 RMK A01 T02040189  RH  091%=      5-min Rain = 0
KHA3 200953Z 05004KT 20/19 A2976 RMK A01 T02030190  RH  092%=      5-min Rain = 0
KHA3 200954Z 06004KT 20/19 A2976 RMK A01 T02020190  RH  093%=      5-min Rain = 0
KHA3 200955Z 06004KT 20/19 A2976 RMK A01 T02000190  RH  093%=      5-min Rain = 0
KHA3 200956Z 06004KT 20/19 A2976 RMK A01 T02000189  RH  094%=      5-min Rain = 0
KHA3 200957Z 07004KT 20/19 A2976 RMK A01 T01980189  RH  094%=      5-min Rain = 0
KHA3 200958Z 08004KT 20/19 A2976 RMK A01 T01980189  RH  095%=      5-min Rain = 0
KHA3 200959Z 08004KT 20/19 A2976 RMK A01 T01970189  RH  095%=      5-min Rain = 0
KHA3 201000Z 09004KT 20/19 A2976 RMK A01 T01970190  RH  095%=      5-min Rain = 0
KHA3 201001Z 09004KT 20/19 A2976 RMK A01 T01970189  RH  095%=      5-min Rain = 0
KHA3 201002Z 09004KT 20/19 A2976 RMK A01 T01970190  RH  096%=      5-min Rain = 0
KHA3 201003Z 09004KT 20/19 A2976 RMK A01 T01970190  RH  096%=      5-min Rain = 0
KHA3 201004Z 10004KT 20/19 A2976 RMK A01 T01970190  RH  096%=      5-min Rain = 0
KHA3 201005Z 10004KT 20/19 A2976 RMK A01 T01970190  RH  096%=      5-min Rain = 0
KHA3 201006Z 10004KT 20/19 A2976 RMK A01 T01960189  RH  096%=      5-min Rain = 0
KHA3 201007Z 10004KT 20/19 A2976 RMK A01 T01970189  RH  096%=      5-min Rain = 0
KHA3 201008Z 10004KT 20/19 A2976 RMK A01 T01960189  RH  095%=      5-min Rain = 0
KHA3 201009Z 10005KT 20/19 A2976 RMK A01 T01960188  RH  095%=      5-min Rain = 0
KHA3 201010Z 09005KT 20/19 A2976 RMK A01 T01950188  RH  095%=      5-min Rain = 0
KHA3 201011Z 09005KT 20/19 A2976 RMK A01 T01950188  RH  096%=      5-min Rain = 0
KHA3 201012Z 09005KT 19/19 A2976 RMK A01 T01940186  RH  095%=      5-min Rain = 0
KHA3 201013Z 09004KT 19/19 A2976 RMK A01 T01930185  RH  095%=      5-min Rain = 0
KHA3 201014Z 09004KT 19/19 A2976 RMK A01 T01930185  RH  095%=      5-min Rain = 0
KHA3 201015Z 09004KT 19/19 A2976 RMK A01 T01930186  RH  096%=      5-min Rain = 0
KHA3 201016Z 09003KT 19/19 A2976 RMK A01 T01930187  RH  096%=      5-min Rain = 0
KHA3 201017Z 08004KT 19/19 A2976 RMK A01 T01930187  RH  096%=      5-min Rain = 0
KHA3 201018Z 09004KT 19/19 A2976 RMK A01 T01930188  RH  096%=      5-min Rain = 0
KHA3 201019Z 09004KT 19/19 A2976 RMK A01 T01940188  RH  096%=      5-min Rain = 0
KHA3 201020Z 09004KT 19/19 A2976 RMK A01 T01940189  RH  096%=      5-min Rain = 0
KHA3 201021Z 09004KT 20/19 A2976 RMK A01 T01950189  RH  096%=      5-min Rain = 0
KHA3 201022Z 08004KT 20/19 A2976 RMK A01 T01950189  RH  096%=      5-min Rain = 0
KHA3 201023Z 08004KT 20/19 A2976 RMK A01 T01960189  RH  096%=      5-min Rain = 0
KHA3 201024Z 08004KT 20/19 A2976 RMK A01 T01950189  RH  096%=      5-min Rain = 0
KHA3 201025Z 08005KT 20/19 A2976 RMK A01 T01950189  RH  096%=      5-min Rain = 0
KHA3 201026Z 08005KT 20/19 A2976 RMK A01 T01950188  RH  096%=      5-min Rain = 0
KHA3 201027Z 09005KT 20/19 A2976 RMK A01 T01960189  RH  096%=      5-min Rain = 0
KHA3 201028Z 09005KT 20/19 A2976 RMK A01 T01960189  RH  096%=      5-min Rain = 0
KHA3 201029Z 09004KT 20/19 A2976 RMK A01 T01960189  RH  096%=      5-min Rain = 0
KHA3 201030Z 09004KT 20/19 A2976 RMK A01 T01960189  RH  096%=      5-min Rain = 0
KHA3 201031Z 10004KT 20/19 A2976 RMK A01 T01970189  RH  096%=      5-min Rain = 0
KHA3 201032Z 10004KT 20/19 A2976 RMK A01 T01970190  RH  096%=      5-min Rain = 0
KHA3 201033Z 10003KT 20/19 A2976 RMK A01 T01970189  RH  095%=      5-min Rain = 0
KHA3 201034Z 10004KT 20/19 A2976 RMK A01 T01970189  RH  095%=      5-min Rain = 0
KHA3 201035Z 10004KT 20/19 A2976 RMK A01 T01970190  RH  096%=      5-min Rain = 0
KHA3 201036Z 10004KT 20/19 A2976 RMK A01 T01970190  RH  096%=      5-min Rain = 0
KHA3 201037Z 10005KT 20/19 A2976 RMK A01 T01980190  RH  095%=      5-min Rain = 0
KHA3 201038Z 10006KT 20/19 A2976 RMK A01 T01980191  RH  095%=      5-min Rain = 0
KHA3 201039Z 10006KT 20/19 A2976 RMK A01 T01990192  RH  095%=      5-min Rain = 0
KHA3 201040Z 10006KT 20/19 A2976 RMK A01 T02000193  RH  095%=      5-min Rain = 0
KHA3 201041Z 10006KT 20/19 A2976 RMK A01 T02010193  RH  095%=      5-min Rain = 0
KHA3 201042Z 10006KT 20/19 A2976 RMK A01 T02020194  RH  095%=      5-min Rain = 0
KHA3 201043Z 10006KT 20/19 A2976 RMK A01 T02030194  RH  095%=      5-min Rain = 0
KHA3 201044Z 10006KT 20/19 A2976 RMK A01 T02030194  RH  095%=      5-min Rain = 0
KHA3 201045Z 10006KT 20/20 A2976 RMK A01 T02040195  RH  094%=      5-min Rain = 0
KHA3 201046Z 10007KT 20/20 A2976 RMK A01 T02040195  RH  094%=      5-min Rain = 0
KHA3 201047Z 10006KT 20/19 A2976 RMK A01 T02040194  RH  094%=      5-min Rain = 0
KHA3 201048Z 10007KT 20/19 A2976 RMK A01 T02040194  RH  094%=      5-min Rain = 0
KHA3 201049Z 10008KT 20/19 A2976 RMK A01 T02040194  RH  094%=      5-min Rain = 0
KHA3 201050Z 10007KT 20/20 A2976 RMK A01 T02040195  RH  094%=      5-min Rain = 0
KHA3 201051Z 10007KT 20/20 A2976 RMK A01 T02040195  RH  094%=      5-min Rain = 0
KHA3 201052Z 10007KT 20/19 A2976 RMK A01 T02030194  RH  094%=      5-min Rain = 0
KHA3 201053Z 10006KT 20/20 A2976 RMK A01 T02030195  RH  095%=      5-min Rain = 0
KHA3 201054Z 10006KT 20/19 A2976 RMK A01 T02030194  RH  095%=      5-min Rain = 0
KHA3 201055Z 10007KT 20/19 A2976 RMK A01 T02020194  RH  095%=      5-min Rain = 0
KHA3 201056Z 10007KT 20/19 A2976 RMK A01 T02020194  RH  095%=      5-min Rain = 0
KHA3 201057Z 10006KT 20/19 A2976 RMK A01 T02020194  RH  095%=      5-min Rain = 0
KHA3 201058Z 11007KT 20/19 A2976 RMK A01 T02020194  RH  095%=      5-min Rain = 0
KHA3 201059Z 10008KT 20/20 A2976 RMK A01 T02030195  RH  095%=      5-min Rain = 0
KHA3 201100Z 11007KT 20/20 A2976 RMK A01 T02040196  RH  095%=      5-min Rain = 0
KHA3 201101Z 11007KT 21/20 A2976 RMK A01 T02050196  RH  095%=      5-min Rain = 0
KHA3 201102Z 11007KT 21/20 A2976 RMK A01 T02050196  RH  095%=      5-min Rain = 0
KHA3 201103Z 11006KT 21/20 A2976 RMK A01 T02050196  RH  094%=      5-min Rain = 0
KHA3 201104Z 11007KT 21/20 A2976 RMK A01 T02050196  RH  094%=      5-min Rain = 0
KHA3 201105Z 11007KT 21/20 A2976 RMK A01 T02050196  RH  095%=      5-min Rain = 0
KHA3 201106Z 11006KT 21/20 A2976 RMK A01 T02050196  RH  095%=      5-min Rain = 0
KHA3 201107Z 12006KT 21/20 A2976 RMK A01 T02050196  RH  095%=      5-min Rain = 0
KHA3 201108Z 12005KT 21/20 A2976 RMK A01 T02050196  RH  095%=      5-min Rain = 0
KHA3 201109Z 12006KT 21/20 A2976 RMK A01 T02050196  RH  094%=      5-min Rain = 0
KHA3 201110Z 12005KT 21/20 A2976 RMK A01 T02050196  RH  094%=      5-min Rain = 0
KHA3 201111Z 12006KT 21/20 A2976 RMK A01 T02060196  RH  094%=      5-min Rain = 0
KHA3 201112Z 12005KT 21/20 A2976 RMK A01 T02070197  RH  094%=      5-min Rain = 0
KHA3 201113Z 12005KT 21/20 A2976 RMK A01 T02060196  RH  094%=      5-min Rain = 0
KHA3 201114Z 11005KT 21/20 A2976 RMK A01 T02070197  RH  094%=      5-min Rain = 0
KHA3 201115Z 12005KT 21/20 A2976 RMK A01 T02060197  RH  094%=      5-min Rain = 0
KHA3 201116Z 12005KT 21/20 A2976 RMK A01 T02070197  RH  094%=      5-min Rain = 0
KHA3 201117Z 12005KT 21/20 A2976 RMK A01 T02070197  RH  094%=      5-min Rain = 0
KHA3 201118Z 12005KT 21/20 A2976 RMK A01 T02070196  RH  093%=      5-min Rain = 0
KHA3 201119Z 12004KT 21/20 A2976 RMK A01 T02080196  RH  093%=      5-min Rain = 0
KHA3 201120Z 13005KT 21/20 A2976 RMK A01 T02070196  RH  093%=      5-min Rain = 0
KHA3 201121Z 12005KT 21/20 A2976 RMK A01 T02080196  RH  093%=      5-min Rain = 0
KHA3 201122Z 13005KT 21/20 A2976 RMK A01 T02090195  RH  092%=      5-min Rain = 0
KHA3 201123Z 13005KT 21/20 A2976 RMK A01 T02090195  RH  092%=      5-min Rain = 0
KHA3 201124Z 12005KT 21/20 A2976 RMK A01 T02100195  RH  091%=      5-min Rain = 0
KHA3 201125Z 12006KT 21/20 A2976 RMK A01 T02100195  RH  091%=      5-min Rain = 0
KHA3 201126Z 12005KT 21/20 A2976 RMK A01 T02100195  RH  091%=      5-min Rain = 0
KHA3 201127Z 12005KT 21/19 A2976 RMK A01 T02090194  RH  091%=      5-min Rain = 0
KHA3 201128Z 12006KT 21/19 A2976 RMK A01 T02090194  RH  091%=      5-min Rain = 0
KHA3 201129Z 12005KT 21/20 A2976 RMK A01 T02090195  RH  091%=      5-min Rain = 0
KHA3 201130Z 13006KT 21/19 A2976 RMK A01 T02090194  RH  092%=      5-min Rain = 0
KHA3 201131Z 13006KT 21/19 A2976 RMK A01 T02080194  RH  091%=      5-min Rain = 0
KHA3 201132Z 13006KT 21/19 A2976 RMK A01 T02080194  RH  091%=      5-min Rain = 0
KHA3 201133Z 12006KT 21/19 A2976 RMK A01 T02090193  RH  091%=      5-min Rain = 0
KHA3 201134Z 12007KT 21/19 A2976 RMK A01 T02090193  RH  091%=      5-min Rain = 0
KHA3 201135Z 12007KT 21/19 A2976 RMK A01 T02090193  RH  091%=      5-min Rain = 0
KHA3 201136Z 12008KT 21/19 A2976 RMK A01 T02090193  RH  090%=      5-min Rain = 0
KHA3 201137Z 12008KT 21/19 A2975 RMK A01 T02090193  RH  090%=      5-min Rain = 0
KHA3 201138Z 12009KT 21/19 A2975 RMK A01 T02100192  RH  090%=      5-min Rain = 0
KHA3 201139Z 12009KT 21/19 A2975 RMK A01 T02100193  RH  090%=      5-min Rain = 0
KHA3 201140Z 12009KT 21/19 A2975 RMK A01 T02100192  RH  090%=      5-min Rain = 0
KHA3 201141Z 12009KT 21/19 A2975 RMK A01 T02100192  RH  089%=      5-min Rain = 0
KHA3 201142Z 12009KT 21/19 A2975 RMK A01 T02100192  RH  089%=      5-min Rain = 0
KHA3 201143Z 12009KT 21/19 A2975 RMK A01 T02100192  RH  089%=      5-min Rain = 0
KHA3 201144Z 13008KT 21/19 A2975 RMK A01 T02110192  RH  089%=      5-min Rain = 0
KHA3 201145Z 13009KT 21/19 A2975 RMK A01 T02110192  RH  089%=      5-min Rain = 0
KHA3 201146Z 13009KT 21/19 A2975 RMK A01 T02100191  RH  089%=      5-min Rain = 0
KHA3 201147Z 13010KT 21/19 A2975 RMK A01 T02110191  RH  088%=      5-min Rain = 0
KHA3 201148Z 13010KT 21/19 A2975 RMK A01 T02110190  RH  087%=      5-min Rain = 0
KHA3 201149Z 13011KT 21/19 A2975 RMK A01 T02120190  RH  087%=      5-min Rain = 0
KHA3 201150Z 13010KT 21/19 A2975 RMK A01 T02130189  RH  086%=      5-min Rain = 0
KHA3 201151Z 13010KT 21/19 A2975 RMK A01 T02130190  RH  086%=      5-min Rain = 0
KHA3 201152Z 13009KT 21/19 A2975 RMK A01 T02130189  RH  086%=      5-min Rain = 0
KHA3 201153Z 13009KT 21/19 A2975 RMK A01 T02130189  RH  086%=      5-min Rain = 0
KHA3 201154Z 13008KT 21/19 A2975 RMK A01 T02140189  RH  086%=      5-min Rain = 0
KHA3 201155Z 13009KT 21/19 A2975 RMK A01 T02140189  RH  086%=      5-min Rain = 0
KHA3 201156Z 13008KT 21/19 A2975 RMK A01 T02140188  RH  085%=      5-min Rain = 0
KHA3 201157Z 13007KT 21/19 A2975 RMK A01 T02140189  RH  086%=      5-min Rain = 0
KHA3 201158Z 13007KT 21/19 A2975 RMK A01 T02140190  RH  086%=      5-min Rain = 0
KHA3 201159Z 12008KT 21/19 A2975 RMK A01 T02140190  RH  086%=      5-min Rain = 0
KHA3 201200Z 12008KT 21/19 A2975 RMK A01 T02130189  RH  086%=      5-min Rain = 0
KHA3 201201Z 12008KT 21/19 A2975 RMK A01 T02130189  RH  086%=      5-min Rain = 0
KHA3 201202Z 12008KT 21/19 A2975 RMK A01 T02140189  RH  086%=      5-min Rain = 0
KHA3 201203Z 12007KT 21/19 A2975 RMK A01 T02140190  RH  086%=      5-min Rain = 0
KHA3 201204Z 12007KT 21/19 A2975 RMK A01 T02140189  RH  086%=      5-min Rain = 0
KHA3 201205Z 11006KT 21/19 A2975 RMK A01 T02140189  RH  086%=      5-min Rain = 0
KHA3 201206Z 11005KT 21/19 A2975 RMK A01 T02140190  RH  086%=      5-min Rain = 0
KHA3 201207Z 11006KT 21/19 A2976 RMK A01 T02140190  RH  086%=      5-min Rain = 0
KHA3 201208Z 11005KT 21/19 A2976 RMK A01 T02140189  RH  086%=      5-min Rain = 0
KHA3 201209Z 11004KT 21/19 A2976 RMK A01 T02140189  RH  085%=      5-min Rain = 0
KHA3 201210Z 11005KT 21/19 A2976 RMK A01 T02140189  RH  085%=      5-min Rain = 0
KHA3 201211Z 10005KT 21/19 A2976 RMK A01 T02140188  RH  085%=      5-min Rain = 0
KHA3 201212Z 11005KT 21/19 A2976 RMK A01 T02140189  RH  086%=      5-min Rain = 0
KHA3 201213Z 11005KT 21/19 A2976 RMK A01 T02140189  RH  086%=      5-min Rain = 0
KHA3 201214Z 11005KT 21/19 A2976 RMK A01 T02140189  RH  086%=      5-min Rain = 0
KHA3 201215Z 11006KT 21/19 A2976 RMK A01 T02140189  RH  086%=      5-min Rain = 0
KHA3 201216Z 11006KT 21/19 A2976 RMK A01 T02140189  RH  086%=      5-min Rain = 0
KHA3 201217Z 11006KT 21/19 A2976 RMK A01 T02140189  RH  086%=      5-min Rain = 0
KHA3 201218Z 11006KT 21/19 A2976 RMK A01 T02140189  RH  086%=      5-min Rain = 0
KHA3 201219Z 10006KT 21/19 A2976 RMK A01 T02140189  RH  085%=      5-min Rain = 0
KHA3 201220Z 10006KT 22/19 A2976 RMK A01 T02150190  RH  086%=      5-min Rain = 0
KHA3 201221Z 10007KT 22/19 A2976 RMK A01 T02150189  RH  085%=      5-min Rain = 0
KHA3 201222Z 10007KT 22/19 A2976 RMK A01 T02150189  RH  085%=      5-min Rain = 0
KHA3 201223Z 10007KT 22/19 A2976 RMK A01 T02150189  RH  085%=      5-min Rain = 0
KHA3 201224Z 10007KT 22/19 A2976 RMK A01 T02150189  RH  085%=      5-min Rain = 0
KHA3 201225Z 10007KT 22/19 A2976 RMK A01 T02150188  RH  085%=      5-min Rain = 0
KHA3 201226Z 10008KT 22/19 A2976 RMK A01 T02160189  RH  085%=      5-min Rain = 0
KHA3 201227Z 11008KT 22/19 A2976 RMK A01 T02160189  RH  085%=      5-min Rain = 0
KHA3 201228Z 11008KT 22/19 A2976 RMK A01 T02160189  RH  084%=      5-min Rain = 0
KHA3 201229Z 11008KT 22/19 A2976 RMK A01 T02160188  RH  084%=      5-min Rain = 0
KHA3 201230Z 11007KT 22/19 A2976 RMK A01 T02160188  RH  084%=      5-min Rain = 0
KHA3 201231Z 11007KT 22/19 A2976 RMK A01 T02160188  RH  084%=      5-min Rain = 0
KHA3 201232Z 11007KT 22/19 A2976 RMK A01 T02160187  RH  083%=      5-min Rain = 0
KHA3 201233Z 11007KT 22/19 A2976 RMK A01 T02160186  RH  083%=      5-min Rain = 0
KHA3 201234Z 11006KT 22/19 A2977 RMK A01 T02170188  RH  084%=      5-min Rain = 0
KHA3 201235Z 11006KT 22/19 A2977 RMK A01 T02170188  RH  083%=      5-min Rain = 0
KHA3 201236Z 11007KT 22/19 A2977 RMK A01 T02170188  RH  083%=      5-min Rain = 0
KHA3 201237Z 11006KT 22/19 A2977 RMK A01 T02170188  RH  083%=      5-min Rain = 0
KHA3 201238Z 12006KT 22/19 A2977 RMK A01 T02180187  RH  083%=      5-min Rain = 0
KHA3 201239Z 12006KT 22/19 A2977 RMK A01 T02180187  RH  083%=      5-min Rain = 0
KHA3 201240Z 12005KT 22/19 A2976 RMK A01 T02180188  RH  083%=      5-min Rain = 0
KHA3 201241Z 11006KT 22/19 A2976 RMK A01 T02180188  RH  083%=      5-min Rain = 0
KHA3 201242Z 11006KT 22/19 A2976 RMK A01 T02190187  RH  082%=      5-min Rain = 0
KHA3 201243Z 11006KT 22/19 A2976 RMK A01 T02200187  RH  082%=      5-min Rain = 0
KHA3 201244Z 11006KT 22/19 A2976 RMK A01 T02200189  RH  082%=      5-min Rain = 0
KHA3 201245Z 11007KT 22/19 A2976 RMK A01 T02210187  RH  081%=      5-min Rain = 0
KHA3 201246Z 11007KT 22/19 A2976 RMK A01 T02220187  RH  081%=      5-min Rain = 0
KHA3 201247Z 11007KT 22/19 A2976 RMK A01 T02230188  RH  081%=      5-min Rain = 0
KHA3 201248Z 11008KT 22/19 A2976 RMK A01 T02240186  RH  079%=      5-min Rain = 0
KHA3 201249Z 11007KT 23/19 A2976 RMK A01 T02250186  RH  079%=      5-min Rain = 0
KHA3 201250Z 11006KT 23/19 A2976 RMK A01 T02250188  RH  080%=      5-min Rain = 0
KHA3 201251Z 12008KT 23/19 A2976 RMK A01 T02260187  RH  078%=      5-min Rain = 0
KHA3 201252Z 11007KT 23/19 A2976 RMK A01 T02260185  RH  078%=      5-min Rain = 0
KHA3 201253Z 12007KT 23/19 A2976 RMK A01 T02270186  RH  078%=      5-min Rain = 0
KHA3 201254Z 12007KT 23/19 A2976 RMK A01 T02270188  RH  078%=      5-min Rain = 0
KHA3 201255Z 12007KT 23/19 A2976 RMK A01 T02280186  RH  077%=      5-min Rain = 0
KHA3 201256Z 11008KT 23/19 A2976 RMK A01 T02290186  RH  077%=      5-min Rain = 0
KHA3 201257Z 11007KT 23/19 A2976 RMK A01 T02290185  RH  076%=      5-min Rain = 0
KHA3 201258Z 11007KT 23/19 A2976 RMK A01 T02300187  RH  077%=      5-min Rain = 0
KHA3 201259Z 11006KT 23/19 A2976 RMK A01 T02300186  RH  076%=      5-min Rain = 0
KHA3 201300Z 11005KT 23/19 A2976 RMK A01 T02300187  RH  077%=      5-min Rain = 0
KHA3 201301Z 11007KT 23/19 A2976 RMK A01 T02310188  RH  076%=      5-min Rain = 0
KHA3 201302Z 11006KT 23/19 A2976 RMK A01 T02320187  RH  076%=      5-min Rain = 0
KHA3 201303Z 11005KT 23/19 A2976 RMK A01 T02320190  RH  077%=      5-min Rain = 0
KHA3 201304Z 11006KT 23/19 A2976 RMK A01 T02330189  RH  076%=      5-min Rain = 0
KHA3 201305Z 12006KT 23/19 A2977 RMK A01 T02340190  RH  076%=      5-min Rain = 0
KHA3 201306Z 12007KT 23/19 A2977 RMK A01 T02340189  RH  076%=      5-min Rain = 0
KHA3 201307Z 12007KT 23/19 A2977 RMK A01 T02340189  RH  076%=      5-min Rain = 0
KHA3 201308Z 13008KT 23/19 A2977 RMK A01 T02340188  RH  075%=      5-min Rain = 0
KHA3 201309Z 12010KT 23/19 A2977 RMK A01 T02340187  RH  075%=      5-min Rain = 0
KHA3 201310Z 13009KT 23/19 A2976 RMK A01 T02340188  RH  075%=      5-min Rain = 0
KHA3 201311Z 13009KT 23/19 A2976 RMK A01 T02340187  RH  075%=      5-min Rain = 0
KHA3 201312Z 13008KT 23/19 A2976 RMK A01 T02340187  RH  075%=      5-min Rain = 0
KHA3 201313Z 12009KT 23/19 A2976 RMK A01 T02340188  RH  075%=      5-min Rain = 0
KHA3 201314Z 13010KT 23/19 A2976 RMK A01 T02340188  RH  075%=      5-min Rain = 0
KHA3 201315Z 13011KT 23/19 A2976 RMK A01 T02340188  RH  075%=      5-min Rain = 0
KHA3 201316Z 13010KT 24/19 A2976 RMK A01 T02350188  RH  075%=      5-min Rain = 0
KHA3 201317Z 14007KT 24/19 A2976 RMK A01 T02350189  RH  076%=      5-min Rain = 0
KHA3 201318Z 14011KT 24/19 A2976 RMK A01 T02350187  RH  074%=      5-min Rain = 0
KHA3 201319Z 13009KT 24/19 A2976 RMK A01 T02350186  RH  074%=      5-min Rain = 0
KHA3 201320Z 13008KT 24/19 A2976 RMK A01 T02350187  RH  074%=      5-min Rain = 0
KHA3 201321Z 13010KT 24/19 A2976 RMK A01 T02350187  RH  074%=      5-min Rain = 0
KHA3 201322Z 13011KT 24/19 A2976 RMK A01 T02360187  RH  074%=      5-min Rain = 0
KHA3 201323Z 13012KT 24/19 A2976 RMK A01 T02360187  RH  074%=      5-min Rain = 0
KHA3 201324Z 13010KT 24/19 A2976 RMK A01 T02360187  RH  074%=      5-min Rain = 0
KHA3 201325Z 12010KT 24/19 A2976 RMK A01 T02370189  RH  074%=      5-min Rain = 0
KHA3 201326Z 13011KT 24/19 A2976 RMK A01 T02370188  RH  074%=      5-min Rain = 0
KHA3 201327Z 13010KT 24/19 A2976 RMK A01 T02370189  RH  074%=      5-min Rain = 0
KHA3 201328Z 13010KT 24/19 A2976 RMK A01 T02380190  RH  074%=      5-min Rain = 0
KHA3 201329Z 12010KT 24/19 A2976 RMK A01 T02380190  RH  074%=      5-min Rain = 0
KHA3 201330Z 13009KT 24/19 A2976 RMK A01 T02390190  RH  074%=      5-min Rain = 0
KHA3 201331Z 12008KT 24/19 A2976 RMK A01 T02400191  RH  074%=      5-min Rain = 0
KHA3 201332Z 12009KT 24/19 A2976 RMK A01 T02400192  RH  074%=      5-min Rain = 0
KHA3 201333Z 12009KT 24/19 A2976 RMK A01 T02410191  RH  074%=      5-min Rain = 0
KHA3 201334Z 13009KT 24/19 A2976 RMK A01 T02410191  RH  074%=      5-min Rain = 0
KHA3 201335Z 12008KT 24/19 A2976 RMK A01 T02420193  RH  074%=      5-min Rain = 0
KHA3 201336Z 14009KT 24/19 A2976 RMK A01 T02430194  RH  074%=      5-min Rain = 0
KHA3 201337Z 13009KT 24/19 A2976 RMK A01 T02440194  RH  074%=      5-min Rain = 0
KHA3 201338Z 12009KT 24/19 A2976 RMK A01 T02440193  RH  073%=      5-min Rain = 0
KHA3 201339Z 13009KT 24/19 A2976 RMK A01 T02440193  RH  073%=      5-min Rain = 0
KHA3 201340Z 12008KT 25/20 A2976 RMK A01 T02450195  RH  074%=      5-min Rain = 0
KHA3 201341Z 13009KT 25/19 A2976 RMK A01 T02450194  RH  073%=      5-min Rain = 0
KHA3 201342Z 13008KT 25/19 A2976 RMK A01 T02450194  RH  073%=      5-min Rain = 0
KHA3 201343Z 13006KT 25/20 A2976 RMK A01 T02460196  RH  074%=      5-min Rain = 0
KHA3 201344Z 13006KT 25/20 A2976 RMK A01 T02460197  RH  074%=      5-min Rain = 0
KHA3 201345Z 14007KT 25/20 A2976 RMK A01 T02480198  RH  073%=      5-min Rain = 0
KHA3 201346Z 15011KT 25/20 A2976 RMK A01 T02490195  RH  072%=      5-min Rain = 0
KHA3 201347Z 13010KT 25/19 A2976 RMK A01 T02480194  RH  072%=      5-min Rain = 0
KHA3 201348Z 13009KT 25/20 A2976 RMK A01 T02470195  RH  073%=      5-min Rain = 0
KHA3 201349Z 13009KT 25/20 A2976 RMK A01 T02460195  RH  073%=      5-min Rain = 0
KHA3 201350Z 12009KT 25/20 A2976 RMK A01 T02470195  RH  073%=      5-min Rain = 0
KHA3 201351Z 13008KT 25/20 A2976 RMK A01 T02480197  RH  073%=      5-min Rain = 0
KHA3 201352Z 13010KT 25/20 A2976 RMK A01 T02500197  RH  073%=      5-min Rain = 0
KHA3 201353Z 13009KT 25/20 A2976 RMK A01 T02500195  RH  072%=      5-min Rain = 0
KHA3 201354Z 13010KT 25/20 A2976 RMK A01 T02500196  RH  072%=      5-min Rain = 0
KHA3 201355Z 13010KT 25/20 A2976 RMK A01 T02500196  RH  072%=      5-min Rain = 0
KHA3 201356Z 13009KT 25/20 A2976 RMK A01 T02500196  RH  072%=      5-min Rain = 0
KHA3 201357Z 13011KT 25/20 A2976 RMK A01 T02500196  RH  072%=      5-min Rain = 0
KHA3 201358Z 13011KT 25/20 A2976 RMK A01 T02500196  RH  072%=      5-min Rain = 0
KHA3 201359Z 13008KT 25/20 A2976 RMK A01 T02500195  RH  072%=      5-min Rain = 0
KHA3 201400Z 13006KT 25/20 A2976 RMK A01 T02500199  RH  073%=      5-min Rain = 0
KHA3 201401Z 14007KT 25/20 A2977 RMK A01 T02530200  RH  073%=      5-min Rain = 0
KHA3 201402Z 13007KT 26/20 A2977 RMK A01 T02550200  RH  072%=      5-min Rain = 0
KHA3 201403Z 13009KT 26/20 A2977 RMK A01 T02550199  RH  071%=      5-min Rain = 0
KHA3 201404Z 13008KT 26/20 A2976 RMK A01 T02550199  RH  071%=      5-min Rain = 0
KHA3 201405Z 13009KT 26/20 A2976 RMK A01 T02550200  RH  072%=      5-min Rain = 0
KHA3 201406Z 12008KT 26/20 A2976 RMK A01 T02550200  RH  072%=      5-min Rain = 0
KHA3 201407Z 13006KT 26/20 A2976 RMK A01 T02560203  RH  072%=      5-min Rain = 0
KHA3 201408Z 14007KT 26/20 A2976 RMK A01 T02580203  RH  072%=      5-min Rain = 0
KHA3 201409Z 15009KT 26/20 A2976 RMK A01 T02590200  RH  070%=      5-min Rain = 0
KHA3 201410Z 15007KT 26/20 A2977 RMK A01 T02590201  RH  070%=      5-min Rain = 0
KHA3 201411Z 16007KT 26/20 A2977 RMK A01 T02590201  RH  070%=      5-min Rain = 0
KHA3 201412Z 18009KT 26/20 A2977 RMK A01 T02580202  RH  071%=      5-min Rain = 0
KHA3 201413Z 16009KT 26/20 A2977 RMK A01 T02590200  RH  070%=      5-min Rain = 0
KHA3 201414Z 15008KT 26/20 A2977 RMK A01 T02590200  RH  070%=      5-min Rain = 0
KHA3 201415Z 15008KT 26/20 A2977 RMK A01 T02580201  RH  071%=      5-min Rain = 0
KHA3 201416Z 16008KT 26/20 A2977 RMK A01 T02590201  RH  070%=      5-min Rain = 0
KHA3 201417Z 15008KT 26/20 A2977 RMK A01 T02590202  RH  071%=      5-min Rain = 0
KHA3 201418Z 16007KT 26/20 A2977 RMK A01 T02610203  RH  070%=      5-min Rain = 0
KHA3 201419Z 17007KT 26/20 A2977 RMK A01 T02620204  RH  071%=      5-min Rain = 0
KHA3 201420Z 17008KT 26/20 A2977 RMK A01 T02630202  RH  069%=      5-min Rain = 0
KHA3 201421Z 17008KT 26/20 A2977 RMK A01 T02620200  RH  069%=      5-min Rain = 0
KHA3 201422Z 17009KT 26/20 A2977 RMK A01 T02600200  RH  070%=      5-min Rain = 0
KHA3 201423Z 16008KT 26/20 A2976 RMK A01 T02600203  RH  071%=      5-min Rain = 0
KHA3 201424Z 15008KT 26/20 A2976 RMK A01 T02610202  RH  070%=      5-min Rain = 0
KHA3 201425Z 14008KT 26/21 A2976 RMK A01 T02620205  RH  071%=      5-min Rain = 0
KHA3 201426Z 14009KT 26/20 A2976 RMK A01 T02630203  RH  070%=      5-min Rain = 0
KHA3 201427Z 14007KT 26/20 A2976 RMK A01 T02630203  RH  070%=      5-min Rain = 0
KHA3 201428Z 14006KT 26/20 A2976 RMK A01 T02630204  RH  070%=      5-min Rain = 0
KHA3 201429Z 17007KT 26/21 A2976 RMK A01 T02640206  RH  070%=      5-min Rain = 0
KHA3 201430Z 18008KT 27/20 A2976 RMK A01 T02650204  RH  069%=      5-min Rain = 0
KHA3 201431Z 15008KT 27/21 A2976 RMK A01 T02650205  RH  069%=      5-min Rain = 0
KHA3 201432Z 17009KT 27/21 A2976 RMK A01 T02660205  RH  069%=      5-min Rain = 0
KHA3 201433Z 16009KT 27/20 A2976 RMK A01 T02660204  RH  069%=      5-min Rain = 0
KHA3 201434Z 17008KT 27/20 A2976 RMK A01 T02650202  RH  068%=      5-min Rain = 0
KHA3 201435Z 16009KT 27/20 A2976 RMK A01 T02650204  RH  069%=      5-min Rain = 0
KHA3 201436Z 16009KT 26/20 A2976 RMK A01 T02640202  RH  069%=      5-min Rain = 0
KHA3 201437Z 16009KT 27/20 A2976 RMK A01 T02650204  RH  069%=      5-min Rain = 0
KHA3 201438Z 15008KT 27/21 A2977 RMK A01 T02650205  RH  070%=      5-min Rain = 0
KHA3 201439Z 15007KT 27/20 A2977 RMK A01 T02650204  RH  069%=      5-min Rain = 0
KHA3 201440Z 18006KT 27/21 A2977 RMK A01 T02650205  RH  069%=      5-min Rain = 0
KHA3 201441Z 19007KT 27/21 A2977 RMK A01 T02650205  RH  070%=      5-min Rain = 0
KHA3 201442Z 19007KT 27/20 A2977 RMK A01 T02660203  RH  068%=      5-min Rain = 0
KHA3 201443Z 19006KT 27/20 A2977 RMK A01 T02650204  RH  069%=      5-min Rain = 0
KHA3 201444Z 19004KT 27/21 A2977 RMK A01 T02650207  RH  070%=      5-min Rain = 0
KHA3 201445Z 17006KT 27/21 A2977 RMK A01 T02660207  RH  070%=      5-min Rain = 0
KHA3 201446Z 18005KT 27/21 A2977 RMK A01 T02670208  RH  070%=      5-min Rain = 0
KHA3 201447Z 18007KT 27/21 A2977 RMK A01 T02690208  RH  069%=      5-min Rain = 0
KHA3 201448Z 20006KT 27/20 A2977 RMK A01 T02700204  RH  067%=      5-min Rain = 0
KHA3 201449Z 19005KT 27/21 A2977 RMK A01 T02700206  RH  068%=      5-min Rain = 0
KHA3 201450Z 17004KT 27/21 A2977 RMK A01 T02700207  RH  069%=      5-min Rain = 0
KHA3 201451Z 20006KT 27/21 A2977 RMK A01 T02700207  RH  068%=      5-min Rain = 0
KHA3 201452Z 20007KT 27/20 A2977 RMK A01 T02710204  RH  067%=      5-min Rain = 0
KHA3 201453Z 18006KT 27/20 A2977 RMK A01 T02700204  RH  067%=      5-min Rain = 0
KHA3 201454Z 20005KT 27/21 A2977 RMK A01 T02700206  RH  068%=      5-min Rain = 0
KHA3 201455Z 21006KT 27/21 A2977 RMK A01 T02700206  RH  068%=      5-min Rain = 0
KHA3 201456Z 19007KT 27/21 A2977 RMK A01 T02710207  RH  068%=      5-min Rain = 0
KHA3 201457Z 18005KT 27/20 A2977 RMK A01 T02720204  RH  066%=      5-min Rain = 0
KHA3 201458Z 19006KT 27/21 A2977 RMK A01 T02720206  RH  067%=      5-min Rain = 0
KHA3 201459Z 20008KT 27/21 A2977 RMK A01 T02720209  RH  068%=      5-min Rain = 0
KHA3 201500Z 20006KT 27/20 A2977 RMK A01 T02730204  RH  066%=      5-min Rain = 0
KHA3 201501Z 21007KT 27/21 A2977 RMK A01 T02720208  RH  068%=      5-min Rain = 0
KHA3 201502Z 21006KT 27/20 A2977 RMK A01 T02730204  RH  066%=      5-min Rain = 0
KHA3 201503Z 22008KT 27/20 A2977 RMK A01 T02740204  RH  066%=      5-min Rain = 0
KHA3 201504Z 22005KT 27/20 A2977 RMK A01 T02730204  RH  066%=      5-min Rain = 0
KHA3 201505Z 21005KT 27/21 A2977 RMK A01 T02740206  RH  067%=      5-min Rain = 0
KHA3 201506Z 21009KT 28/21 A2977 RMK A01 T02750205  RH  065%=      5-min Rain = 0
KHA3 201507Z 20008KT 28/20 A2977 RMK A01 T02750203  RH  065%=      5-min Rain = 0
KHA3 201508Z 22008KT 27/20 A2977 RMK A01 T02740203  RH  065%=      5-min Rain = 0
KHA3 201509Z 23008KT 27/20 A2977 RMK A01 T02730202  RH  065%=      5-min Rain = 0
KHA3 201510Z 22009KT 27/20 A2977 RMK A01 T02730203  RH  065%=      5-min Rain = 0
KHA3 201511Z 22007KT 27/20 A2977 RMK A01 T02730201  RH  065%=      5-min Rain = 0
KHA3 201512Z 23007KT 27/20 A2977 RMK A01 T02730201  RH  065%=      5-min Rain = 0
KHA3 201513Z 22007KT 27/21 A2977 RMK A01 T02730205  RH  066%=      5-min Rain = 0
KHA3 201514Z 23007KT 28/20 A2977 RMK A01 T02750202  RH  064%=      5-min Rain = 0
KHA3 201515Z 23005KT 28/20 A2977 RMK A01 T02750202  RH  064%=      5-min Rain = 0
KHA3 201516Z 18007KT 28/20 A2977 RMK A01 T02750204  RH  065%=      5-min Rain = 0
KHA3 201517Z 18010KT 28/20 A2977 RMK A01 T02750204  RH  065%=      5-min Rain = 0
KHA3 201518Z 19009KT 27/20 A2977 RMK A01 T02740202  RH  065%=      5-min Rain = 0
KHA3 201519Z 19009KT 27/21 A2977 RMK A01 T02740206  RH  066%=      5-min Rain = 0
KHA3 201520Z 19009KT 28/21 A2977 RMK A01 T02750206  RH  066%=      5-min Rain = 0
KHA3 201521Z 20007KT 28/21 A2977 RMK A01 T02770206  RH  066%=      5-min Rain = 0
KHA3 201522Z 21006KT 28/21 A2977 RMK A01 T02770207  RH  065%=      5-min Rain = 0
KHA3 201523Z 18005KT 28/21 A2977 RMK A01 T02780206  RH  065%=      5-min Rain = 0
KHA3 201524Z 18008KT 28/21 A2977 RMK A01 T02780207  RH  065%=      5-min Rain = 0
KHA3 201525Z 19007KT 28/20 A2977 RMK A01 T02780204  RH  064%=      5-min Rain = 0
KHA3 201526Z 20007KT 28/21 A2977 RMK A01 T02780209  RH  066%=      5-min Rain = 0
KHA3 201527Z 23009KT 28/21 A2977 RMK A01 T02790205  RH  064%=      5-min Rain = 0
KHA3 201528Z 23009KT 28/20 A2977 RMK A01 T02790203  RH  064%=      5-min Rain = 0
KHA3 201529Z 21009KT 28/20 A2977 RMK A01 T02790204  RH  064%=      5-min Rain = 0
KHA3 201530Z 21009KT 28/20 A2977 RMK A01 T02790203  RH  063%=      5-min Rain = 0
KHA3 201531Z 20008KT 28/20 A2977 RMK A01 T02780203  RH  064%=      5-min Rain = 0
KHA3 201532Z 20007KT 28/21 A2977 RMK A01 T02780207  RH  065%=      5-min Rain = 0
KHA3 201533Z 22006KT 28/21 A2977 RMK A01 T02790207  RH  065%=      5-min Rain = 0
KHA3 201534Z 22007KT 28/21 A2977 RMK A01 T02810205  RH  064%=      5-min Rain = 0
KHA3 201535Z 21005KT 28/20 A2977 RMK A01 T02800202  RH  062%=      5-min Rain = 0
KHA3 201536Z 22006KT 28/21 A2977 RMK A01 T02780205  RH  064%=      5-min Rain = 0
KHA3 201537Z 23007KT 28/21 A2977 RMK A01 T02780206  RH  065%=      5-min Rain = 0
KHA3 201538Z 22008KT 28/21 A2977 RMK A01 T02790206  RH  064%=      5-min Rain = 0
KHA3 201539Z 21008KT 28/21 A2977 RMK A01 T02800206  RH  064%=      5-min Rain = 0
KHA3 201540Z 20006KT 28/20 A2977 RMK A01 T02800204  RH  063%=      5-min Rain = 0
KHA3 201541Z 19006KT 28/20 A2976 RMK A01 T02790204  RH  064%=      5-min Rain = 0
KHA3 201542Z 19009KT 28/21 A2976 RMK A01 T02790206  RH  065%=      5-min Rain = 0
KHA3 201543Z 19009KT 28/21 A2976 RMK A01 T02790206  RH  064%=      5-min Rain = 0
KHA3 201544Z 19008KT 28/20 A2976 RMK A01 T02790204  RH  064%=      5-min Rain = 0
KHA3 201545Z 20007KT 28/21 A2976 RMK A01 T02790206  RH  064%=      5-min Rain = 0
KHA3 201546Z 19007KT 28/21 A2976 RMK A01 T02800210  RH  066%=      5-min Rain = 0
KHA3 201547Z 20008KT 28/21 A2976 RMK A01 T02810207  RH  064%=      5-min Rain = 0
KHA3 201548Z 19008KT 28/21 A2976 RMK A01 T02820209  RH  065%=      5-min Rain = 0
KHA3 201549Z 18008KT 28/21 A2976 RMK A01 T02820209  RH  065%=      5-min Rain = 0
KHA3 201550Z 18007KT 28/21 A2976 RMK A01 T02820210  RH  065%=      5-min Rain = 0
KHA3 201551Z 18007KT 28/21 A2976 RMK A01 T02830210  RH  065%=      5-min Rain = 0
KHA3 201552Z 18008KT 28/21 A2976 RMK A01 T02830212  RH  065%=      5-min Rain = 0
KHA3 201553Z 18009KT 28/21 A2976 RMK A01 T02840208  RH  063%=      5-min Rain = 0
KHA3 201554Z 18008KT 28/21 A2976 RMK A01 T02830208  RH  064%=      5-min Rain = 0
KHA3 201555Z 18007KT 28/21 A2976 RMK A01 T02830207  RH  063%=      5-min Rain = 0
KHA3 201556Z 18006KT 28/21 A2976 RMK A01 T02830206  RH  063%=      5-min Rain = 0
KHA3 201557Z 17007KT 28/21 A2976 RMK A01 T02830210  RH  064%=      5-min Rain = 0
KHA3 201558Z 20008KT 29/21 A2976 RMK A01 T02860210  RH  064%=      5-min Rain = 0
KHA3 201559Z 21009KT 29/20 A2976 RMK A01 T02880202  RH  060%=      5-min Rain = 0
KHA3 201600Z 21007KT 29/21 A2976 RMK A01 T02880205  RH  061%=      5-min Rain = 0
KHA3 201601Z 19006KT 29/21 A2976 RMK A01 T02890209  RH  062%=      5-min Rain = 0
KHA3 201602Z 18007KT 29/21 A2976 RMK A01 T02900209  RH  061%=      5-min Rain = 0
KHA3 201603Z 18007KT 29/21 A2976 RMK A01 T02910210  RH  062%=      5-min Rain = 0
KHA3 201604Z 17008KT 29/21 A2976 RMK A01 T02900210  RH  062%=      5-min Rain = 0
KHA3 201605Z 17007KT 29/21 A2976 RMK A01 T02900211  RH  062%=      5-min Rain = 0
KHA3 201606Z 15006KT 29/21 A2976 RMK A01 T02900212  RH  063%=      5-min Rain = 0
KHA3 201607Z 18004KT 29/21 A2976 RMK A01 T02900213  RH  063%=      5-min Rain = 0
KHA3 201608Z 18008KT 29/21 A2976 RMK A01 T02920211  RH  062%=      5-min Rain = 0
KHA3 201609Z 18007KT 29/21 A2976 RMK A01 T02920210  RH  061%=      5-min Rain = 0
KHA3 201610Z 19009KT 29/21 A2976 RMK A01 T02910208  RH  061%=      5-min Rain = 0
KHA3 201611Z 20006KT 29/21 A2976 RMK A01 T02920205  RH  059%=      5-min Rain = 0
KHA3 201612Z 20006KT 29/21 A2976 RMK A01 T02910207  RH  060%=      5-min Rain = 0
KHA3 201613Z 21005KT 29/21 A2976 RMK A01 T02900207  RH  061%=      5-min Rain = 0
KHA3 201614Z 19005KT 29/21 A2976 RMK A01 T02900208  RH  061%=      5-min Rain = 0
KHA3 201615Z 17004KT 29/21 A2976 RMK A01 T02910213  RH  063%=      5-min Rain = 0
KHA3 201616Z 20006KT 29/21 A2976 RMK A01 T02910211  RH  062%=      5-min Rain = 0
KHA3 201617Z 22007KT 29/21 A2976 RMK A01 T02920211  RH  062%=      5-min Rain = 0
KHA3 201618Z 21008KT 29/21 A2976 RMK A01 T02920211  RH  062%=      5-min Rain = 0
KHA3 201619Z 19008KT 29/21 A2976 RMK A01 T02920212  RH  062%=      5-min Rain = 0
KHA3 201620Z 19008KT 29/21 A2976 RMK A01 T02920213  RH  062%=      5-min Rain = 0
KHA3 201621Z 18008KT 29/21 A2976 RMK A01 T02940213  RH  062%=      5-min Rain = 0
KHA3 201622Z 18008KT 30/21 A2976 RMK A01 T02950208  RH  060%=      5-min Rain = 0
KHA3 201623Z 21007KT 29/21 A2976 RMK A01 T02940211  RH  061%=      5-min Rain = 0
KHA3 201624Z 21006KT 29/21 A2976 RMK A01 T02940210  RH  061%=      5-min Rain = 0
KHA3 201625Z 21006KT 30/21 A2976 RMK A01 T02960212  RH  061%=      5-min Rain = 0
KHA3 201626Z 21005KT 30/21 A2976 RMK A01 T02960214  RH  061%=      5-min Rain = 0
KHA3 201627Z 22008KT 30/21 A2976 RMK A01 T02980212  RH  060%=      5-min Rain = 0
KHA3 201628Z 22009KT 30/21 A2976 RMK A01 T02970207  RH  058%=      5-min Rain = 0
KHA3 201629Z 21009KT 30/21 A2976 RMK A01 T02960207  RH  059%=      5-min Rain = 0
KHA3 201630Z 22009KT 30/21 A2976 RMK A01 T02950205  RH  058%=      5-min Rain = 0
KHA3 201631Z 21009KT 29/21 A2976 RMK A01 T02940206  RH  059%=      5-min Rain = 0
KHA3 201632Z 21010KT 30/21 A2976 RMK A01 T02950208  RH  060%=      5-min Rain = 0
KHA3 201633Z 19010KT 30/21 A2976 RMK A01 T02950209  RH  060%=      5-min Rain = 0
KHA3 201634Z 19008KT 30/21 A2976 RMK A01 T02960210  RH  060%=      5-min Rain = 0
KHA3 201635Z 21007KT 30/21 A2976 RMK A01 T02960211  RH  060%=      5-min Rain = 0
KHA3 201641Z 19007KT 30/21 A2976 RMK A01 T03000209  RH  058%=      5-min Rain = 0
KHA3 201642Z 18007KT 30/20 A2976 RMK A01 T03000204  RH  056%=      5-min Rain = 0
KHA3 201643Z 19007KT 30/21 A2976 RMK A01 T02990207  RH  058%=      5-min Rain = 0
KHA3 201644Z 18007KT 30/22 A2976 RMK A01 T03010215  RH  060%=      5-min Rain = 0
KHA3 201645Z 17006KT 30/21 A2976 RMK A01 T03040214  RH  059%=      5-min Rain = 0
KHA3 201646Z 19007KT 30/21 A2976 RMK A01 T03040212  RH  058%=      5-min Rain = 0
KHA3 201647Z 20006KT 30/22 A2976 RMK A01 T03040215  RH  059%=      5-min Rain = 0
KHA3 201648Z 20009KT 30/21 A2976 RMK A01 T03040212  RH  058%=      5-min Rain = 0
KHA3 201649Z 21008KT 31/21 A2976 RMK A01 T03050206  RH  056%=      5-min Rain = 0
KHA3 201650Z 21007KT 30/21 A2976 RMK A01 T03040208  RH  057%=      5-min Rain = 0
KHA3 201651Z 19006KT 30/21 A2976 RMK A01 T03040209  RH  057%=      5-min Rain = 0
KHA3 201652Z 18006KT 30/21 A2976 RMK A01 T03030206  RH  056%=      5-min Rain = 0
KHA3 201653Z 18007KT 30/21 A2976 RMK A01 T03040205  RH  056%=      5-min Rain = 0
KHA3 201654Z 20007KT 31/21 A2976 RMK A01 T03050205  RH  055%=      5-min Rain = 0
KHA3 201655Z 19007KT 31/20 A2976 RMK A01 T03050203  RH  054%=      5-min Rain = 0
KHA3 201656Z 20008KT 31/21 A2976 RMK A01 T03060205  RH  055%=      5-min Rain = 0
KHA3 201657Z 20006KT 31/21 A2976 RMK A01 T03070210  RH  057%=      5-min Rain = 0
KHA3 201658Z 22004KT 31/21 A2976 RMK A01 T03080205  RH  054%=      5-min Rain = 0
KHA3 201659Z 19006KT 31/21 A2976 RMK A01 T03070206  RH  055%=      5-min Rain = 0
KHA3 201700Z 18010KT 31/20 A2976 RMK A01 T03070204  RH  054%=      5-min Rain = 0
KHA3 201701Z 19008KT 31/20 A2976 RMK A01 T03070204  RH  054%=      5-min Rain = 0
KHA3 201702Z 18008KT 31/21 A2976 RMK A01 T03070206  RH  055%=      5-min Rain = 0
KHA3 201703Z 17008KT 31/20 A2976 RMK A01 T03060202  RH  054%=      5-min Rain = 0
KHA3 201704Z 17005KT 30/21 A2976 RMK A01 T03040205  RH  055%=      5-min Rain = 0
KHA3 201705Z 18007KT 30/21 A2976 RMK A01 T03040211  RH  057%=      5-min Rain = 0
KHA3 201706Z 17008KT 31/21 A2976 RMK A01 T03060211  RH  057%=      5-min Rain = 0
KHA3 201707Z 18007KT 31/21 A2976 RMK A01 T03060208  RH  056%=      5-min Rain = 0
KHA3 201708Z 20009KT 31/21 A2976 RMK A01 T03060211  RH  057%=      5-min Rain = 0
KHA3 201709Z 19011KT 31/21 A2976 RMK A01 T03080209  RH  056%=      5-min Rain = 0
KHA3 201710Z 19010KT 31/21 A2976 RMK A01 T03090209  RH  055%=      5-min Rain = 0
KHA3 201711Z 20007KT 31/21 A2976 RMK A01 T03070207  RH  055%=      5-min Rain = 0
KHA3 201712Z 21008KT 31/21 A2976 RMK A01 T03060212  RH  057%=      5-min Rain = 0
KHA3 201713Z 21007KT 31/21 A2976 RMK A01 T03060206  RH  055%=      5-min Rain = 0
KHA3 201714Z 18010KT 31/21 A2976 RMK A01 T03070210  RH  056%=      5-min Rain = 0
KHA3 201715Z 19009KT 31/21 A2976 RMK A01 T03080209  RH  056%=      5-min Rain = 0
KHA3 201716Z 18010KT 31/21 A2976 RMK A01 T03090209  RH  055%=      5-min Rain = 0
KHA3 201717Z 18012KT 31/21 A2976 RMK A01 T03100205  RH  054%=      5-min Rain = 0
KHA3 201718Z 19012KT 31/21 A2976 RMK A01 T03100208  RH  055%=      5-min Rain = 0
KHA3 201719Z 20009KT 31/21 A2976 RMK A01 T03110211  RH  055%=      5-min Rain = 0
KHA3 201720Z 21007KT 31/21 A2976 RMK A01 T03120210  RH  054%=      5-min Rain = 0
KHA3 201721Z 21006KT 31/21 A2976 RMK A01 T03130209  RH  054%=      5-min Rain = 0
KHA3 201722Z 22007KT 31/21 A2976 RMK A01 T03130205  RH  053%=      5-min Rain = 0
KHA3 201723Z 20006KT 31/21 A2976 RMK A01 T03120207  RH  054%=      5-min Rain = 0
KHA3 201724Z 18007KT 31/21 A2976 RMK A01 T03120210  RH  055%=      5-min Rain = 0
KHA3 201725Z 19008KT 31/21 A2976 RMK A01 T03120209  RH  054%=      5-min Rain = 0
KHA3 201726Z 20007KT 31/21 A2976 RMK A01 T03120212  RH  055%=      5-min Rain = 0
KHA3 201727Z 20009KT 31/21 A2976 RMK A01 T03140212  RH  055%=      5-min Rain = 0
KHA3 201728Z 20007KT 32/21 A2976 RMK A01 T03150208  RH  053%=      5-min Rain = 0
KHA3 201729Z 18008KT 31/21 A2976 RMK A01 T03140211  RH  054%=      5-min Rain = 0
KHA3 201730Z 17009KT 32/21 A2976 RMK A01 T03170211  RH  054%=      5-min Rain = 0
KHA3 201731Z 18011KT 32/21 A2976 RMK A01 T03190207  RH  052%=      5-min Rain = 0
KHA3 201732Z 19010KT 32/21 A2976 RMK A01 T03170205  RH  052%=      5-min Rain = 0
KHA3 201733Z 21009KT 32/21 A2976 RMK A01 T03150205  RH  052%=      5-min Rain = 0
KHA3 201734Z 20007KT 31/21 A2976 RMK A01 T03140205  RH  052%=      5-min Rain = 0
KHA3 201735Z 18007KT 32/21 A2976 RMK A01 T03150213  RH  055%=      5-min Rain = 0
KHA3 201736Z 20008KT 32/21 A2976 RMK A01 T03170210  RH  053%=      5-min Rain = 0
KHA3 201737Z 19007KT 32/21 A2975 RMK A01 T03180209  RH  053%=      5-min Rain = 0
KHA3 201738Z 17008KT 32/21 A2975 RMK A01 T03180210  RH  053%=      5-min Rain = 0
KHA3 201739Z 18009KT 32/21 A2975 RMK A01 T03190206  RH  051%=      5-min Rain = 0
KHA3 201740Z 17006KT 32/21 A2975 RMK A01 T03180210  RH  053%=      5-min Rain = 0
KHA3 201741Z 19008KT 32/21 A2975 RMK A01 T03190210  RH  053%=      5-min Rain = 0
KHA3 201742Z 20009KT 32/21 A2975 RMK A01 T03200206  RH  051%=      5-min Rain = 0
KHA3 201743Z 19009KT 32/21 A2975 RMK A01 T03200210  RH  052%=      5-min Rain = 0
KHA3 201744Z 18009KT 32/21 A2975 RMK A01 T03200208  RH  052%=      5-min Rain = 0
KHA3 201745Z 20008KT 32/21 A2975 RMK A01 T03200213  RH  053%=      5-min Rain = 0
KHA3 201746Z 20011KT 32/21 A2975 RMK A01 T03230211  RH  052%=      5-min Rain = 0
KHA3 201747Z 19010KT 32/21 A2975 RMK A01 T03240207  RH  050%=      5-min Rain = 0
KHA3 201748Z 18011KT 32/21 A2975 RMK A01 T03230209  RH  051%=      5-min Rain = 0
KHA3 201749Z 19010KT 32/21 A2975 RMK A01 T03230207  RH  050%=      5-min Rain = 0
KHA3 201750Z 19007KT 32/21 A2975 RMK A01 T03230205  RH  050%=      5-min Rain = 0
KHA3 201751Z 19006KT 32/21 A2975 RMK A01 T03220209  RH  051%=      5-min Rain = 0
KHA3 201752Z 18010KT 32/21 A2975 RMK A01 T03210205  RH  050%=      5-min Rain = 0
KHA3 201753Z 19008KT 32/21 A2975 RMK A01 T03220208  RH  051%=      5-min Rain = 0
KHA3 201754Z 20010KT 32/21 A2975 RMK A01 T03230211  RH  052%=      5-min Rain = 0
KHA3 201755Z 20010KT 33/20 A2975 RMK A01 T03250200  RH  048%=      5-min Rain = 0
KHA3 201756Z 20009KT 32/20 A2975 RMK A01 T03240204  RH  049%=      5-min Rain = 0
KHA3 201757Z 19008KT 32/21 A2975 RMK A01 T03240208  RH  050%=      5-min Rain = 0
KHA3 201758Z 20010KT 33/21 A2975 RMK A01 T03260210  RH  050%=      5-min Rain = 0
KHA3 201759Z 19008KT 33/21 A2975 RMK A01 T03270206  RH  049%=      5-min Rain = 0
KHA3 201800Z 20009KT 33/21 A2975 RMK A01 T03260205  RH  049%=      5-min Rain = 0
KHA3 201801Z 19009KT 32/21 A2975 RMK A01 T03240211  RH  051%=      5-min Rain = 0
KHA3 201802Z 19006KT 33/21 A2975 RMK A01 T03260208  RH  050%=      5-min Rain = 0
KHA3 201803Z 19009KT 33/21 A2975 RMK A01 T03260213  RH  051%=      5-min Rain = 0
KHA3 201804Z 19010KT 33/21 A2975 RMK A01 T03290214  RH  051%=      5-min Rain = 0
KHA3 201805Z 18008KT 33/21 A2975 RMK A01 T03300207  RH  048%=      5-min Rain = 0
KHA3 201806Z 18008KT 33/21 A2975 RMK A01 T03290209  RH  049%=      5-min Rain = 0
KHA3 201807Z 17011KT 33/21 A2975 RMK A01 T03290213  RH  050%=      5-min Rain = 0
KHA3 201808Z 17009KT 33/21 A2975 RMK A01 T03300208  RH  049%=      5-min Rain = 0
KHA3 201809Z 19008KT 33/21 A2975 RMK A01 T03310213  RH  050%=      5-min Rain = 0
KHA3 201810Z 21009KT 33/21 A2975 RMK A01 T03320214  RH  050%=      5-min Rain = 0
KHA3 201811Z 21009KT 33/21 A2975 RMK A01 T03340208  RH  048%=      5-min Rain = 0
KHA3 201812Z 21010KT 33/21 A2975 RMK A01 T03340207  RH  047%=      5-min Rain = 0
KHA3 201813Z 19011KT 33/20 A2975 RMK A01 T03340204  RH  046%=      5-min Rain = 0
KHA3 201814Z 19013KT 34/20 A2975 RMK A01 T03350195  RH  044%=      5-min Rain = 0
KHA3 201815Z 20010KT 33/20 A2975 RMK A01 T03330199  RH  045%=      5-min Rain = 0
KHA3 201816Z 21009KT 33/20 A2975 RMK A01 T03330197  RH  045%=      5-min Rain = 0
KHA3 201817Z 22007KT 33/20 A2975 RMK A01 T03330199  RH  045%=      5-min Rain = 0
KHA3 201818Z 22009KT 34/20 A2975 RMK A01 T03350201  RH  046%=      5-min Rain = 0
KHA3 201819Z 19007KT 34/20 A2975 RMK A01 T03350199  RH  045%=      5-min Rain = 0
KHA3 201820Z 22007KT 34/21 A2975 RMK A01 T03350208  RH  047%=      5-min Rain = 0
KHA3 201821Z 21007KT 34/20 A2975 RMK A01 T03370197  RH  044%=      5-min Rain = 0
KHA3 201822Z 20008KT 34/20 A2975 RMK A01 T03360198  RH  044%=      5-min Rain = 0
KHA3 201823Z 21010KT 34/20 A2975 RMK A01 T03350202  RH  046%=      5-min Rain = 0
KHA3 201824Z 20009KT 34/20 A2975 RMK A01 T03370204  RH  046%=      5-min Rain = 0
KHA3 201825Z 21009KT 34/20 A2975 RMK A01 T03380200  RH  045%=      5-min Rain = 0
KHA3 201826Z 21009KT 34/21 A2975 RMK A01 T03380206  RH  046%=      5-min Rain = 0
KHA3 201827Z 21009KT 34/21 A2975 RMK A01 T03390205  RH  045%=      5-min Rain = 0
KHA3 201828Z 19009KT 34/20 A2975 RMK A01 T03400204  RH  045%=      5-min Rain = 0
KHA3 201829Z 19009KT 34/21 A2975 RMK A01 T03390206  RH  046%=      5-min Rain = 0
KHA3 201830Z 18008KT 34/20 A2975 RMK A01 T03390204  RH  045%=      5-min Rain = 0
KHA3 201831Z 20009KT 34/21 A2975 RMK A01 T03390209  RH  047%=      5-min Rain = 0
KHA3 201832Z 19011KT 34/20 A2975 RMK A01 T03410203  RH  044%=      5-min Rain = 0
KHA3 201833Z 20009KT 34/20 A2975 RMK A01 T03400203  RH  045%=      5-min Rain = 0
KHA3 201834Z 20009KT 34/21 A2975 RMK A01 T03410209  RH  046%=      5-min Rain = 0
KHA3 201835Z 20009KT 34/20 A2975 RMK A01 T03430200  RH  043%=      5-min Rain = 0
KHA3 201836Z 21009KT 34/20 A2975 RMK A01 T03430196  RH  042%=      5-min Rain = 0
KHA3 201837Z 22009KT 34/20 A2975 RMK A01 T03410200  RH  044%=      5-min Rain = 0
KHA3 201838Z 21008KT 34/20 A2975 RMK A01 T03420199  RH  043%=      5-min Rain = 0
KHA3 201839Z 22007KT 34/20 A2975 RMK A01 T03420201  RH  044%=      5-min Rain = 0
KHA3 201840Z 19008KT 34/21 A2975 RMK A01 T03430205  RH  045%=      5-min Rain = 0
KHA3 201841Z 19008KT 34/21 A2975 RMK A01 T03440211  RH  046%=      5-min Rain = 0
KHA3 201842Z 19010KT 35/21 A2975 RMK A01 T03450207  RH  044%=      5-min Rain = 0
KHA3 201843Z 19009KT 35/20 A2975 RMK A01 T03450196  RH  042%=      5-min Rain = 0
KHA3 201844Z 21009KT 35/20 A2975 RMK A01 T03450199  RH  043%=      5-min Rain = 0
KHA3 201845Z 20009KT 35/19 A2975 RMK A01 T03460192  RH  040%=      5-min Rain = 0
KHA3 201846Z 19011KT 35/19 A2974 RMK A01 T03460194  RH  041%=      5-min Rain = 0
KHA3 201847Z 18010KT 35/19 A2974 RMK A01 T03450193  RH  041%=      5-min Rain = 0
KHA3 201848Z 18010KT 35/19 A2974 RMK A01 T03450192  RH  041%=      5-min Rain = 0
KHA3 201849Z 19011KT 35/19 A2974 RMK A01 T03450191  RH  040%=      5-min Rain = 0
KHA3 201850Z 18009KT 35/19 A2974 RMK A01 T03450186  RH  039%=      5-min Rain = 0
KHA3 201851Z 19008KT 35/19 A2974 RMK A01 T03450193  RH  041%=      5-min Rain = 0
KHA3 201852Z 19009KT 35/20 A2974 RMK A01 T03470203  RH  043%=      5-min Rain = 0
KHA3 201853Z 21012KT 35/19 A2974 RMK A01 T03490190  RH  039%=      5-min Rain = 0
KHA3 201854Z 20012KT 35/19 A2974 RMK A01 T03490186  RH  038%=      5-min Rain = 0
KHA3 201855Z 20012KT 35/19 A2974 RMK A01 T03480185  RH  038%=      5-min Rain = 0
KHA3 201856Z 20011KT 35/19 A2974 RMK A01 T03480186  RH  038%=      5-min Rain = 0
KHA3 201857Z 21010KT 35/18 A2974 RMK A01 T03480184  RH  038%=      5-min Rain = 0
KHA3 201858Z 22011KT 35/18 A2974 RMK A01 T03490180  RH  037%=      5-min Rain = 0
KHA3 201859Z 22010KT 35/18 A2974 RMK A01 T03500179  RH  037%=      5-min Rain = 0
KHA3 201900Z 23010KT 35/18 A2974 RMK A01 T03500182  RH  037%=      5-min Rain = 0
KHA3 201901Z 22010KT 35/18 A2974 RMK A01 T03510184  RH  038%=      5-min Rain = 0
KHA3 201902Z 21008KT 35/19 A2974 RMK A01 T03510190  RH  039%=      5-min Rain = 0
KHA3 201903Z 20009KT 35/20 A2974 RMK A01 T03520196  RH  040%=      5-min Rain = 0
KHA3 201904Z 19008KT 35/20 A2974 RMK A01 T03530197  RH  040%=      5-min Rain = 0
KHA3 201905Z 19011KT 35/19 A2974 RMK A01 T03530191  RH  039%=      5-min Rain = 0
KHA3 201906Z 19009KT 35/19 A2974 RMK A01 T03520191  RH  039%=      5-min Rain = 0
KHA3 201907Z 20009KT 35/19 A2974 RMK A01 T03520187  RH  038%=      5-min Rain = 0
KHA3 201908Z 21011KT 35/19 A2974 RMK A01 T03520187  RH  038%=      5-min Rain = 0
KHA3 201909Z 20012KT 35/19 A2974 RMK A01 T03520186  RH  038%=      5-min Rain = 0
KHA3 201910Z 20009KT 35/19 A2974 RMK A01 T03520185  RH  038%=      5-min Rain = 0
KHA3 201911Z 21009KT 35/19 A2974 RMK A01 T03520185  RH  037%=      5-min Rain = 0
KHA3 201912Z 22010KT 35/19 A2974 RMK A01 T03530188  RH  038%=      5-min Rain = 0
KHA3 201913Z 21009KT 35/19 A2974 RMK A01 T03530192  RH  039%=      5-min Rain = 0
KHA3 201914Z 20009KT 35/20 A2974 RMK A01 T03530195  RH  039%=      5-min Rain = 0
KHA3 201915Z 20010KT 35/20 A2974 RMK A01 T03540202  RH  041%=      5-min Rain = 0
KHA3 201916Z 19011KT 35/19 A2974 RMK A01 T03540190  RH  038%=      5-min Rain = 0
KHA3 201917Z 18012KT 35/19 A2974 RMK A01 T03530188  RH  038%=      5-min Rain = 0
KHA3 201918Z 18011KT 35/19 A2974 RMK A01 T03530187  RH  038%=      5-min Rain = 0
KHA3 201919Z 18011KT 35/19 A2974 RMK A01 T03530187  RH  038%=      5-min Rain = 0
KHA3 201920Z 19011KT 35/19 A2974 RMK A01 T03520187  RH  038%=      5-min Rain = 0
KHA3 201921Z 19010KT 35/18 A2973 RMK A01 T03530184  RH  037%=      5-min Rain = 0
KHA3 201922Z 17010KT 35/19 A2973 RMK A01 T03520191  RH  039%=      5-min Rain = 0
KHA3 201923Z 18011KT 35/19 A2973 RMK A01 T03530186  RH  038%=      5-min Rain = 0
KHA3 201924Z 18012KT 35/18 A2973 RMK A01 T03530183  RH  037%=      5-min Rain = 0
KHA3 201925Z 19011KT 35/19 A2973 RMK A01 T03530188  RH  038%=      5-min Rain = 0
KHA3 201926Z 19011KT 35/19 A2973 RMK A01 T03530189  RH  038%=      5-min Rain = 0
KHA3 201927Z 20011KT 35/19 A2973 RMK A01 T03540192  RH  039%=      5-min Rain = 0
KHA3 201928Z 21012KT 36/19 A2973 RMK A01 T03550193  RH  039%=      5-min Rain = 0
KHA3 201929Z 21012KT 36/19 A2973 RMK A01 T03550186  RH  037%=      5-min Rain = 0
KHA3 201930Z 21008KT 36/20 A2973 RMK A01 T03550196  RH  039%=      5-min Rain = 0
KHA3 201931Z 19008KT 36/20 A2973 RMK A01 T03560202  RH  040%=      5-min Rain = 0
KHA3 201932Z 19012KT 36/19 A2973 RMK A01 T03580188  RH  037%=      5-min Rain = 0
KHA3 201933Z 19013KT 36/19 A2973 RMK A01 T03580187  RH  037%=      5-min Rain = 0
KHA3 201934Z 19011KT 36/19 A2973 RMK A01 T03570185  RH  036%=      5-min Rain = 0
KHA3 201935Z 19010KT 36/19 A2973 RMK A01 T03560187  RH  037%=      5-min Rain = 0
KHA3 201936Z 19012KT 36/18 A2973 RMK A01 T03550182  RH  036%=      5-min Rain = 0
KHA3 201937Z 19012KT 36/19 A2973 RMK A01 T03560185  RH  037%=      5-min Rain = 0
KHA3 201938Z 20010KT 36/19 A2973 RMK A01 T03560187  RH  037%=      5-min Rain = 0
KHA3 201939Z 19011KT 36/19 A2973 RMK A01 T03570190  RH  038%=      5-min Rain = 0
KHA3 201940Z 19011KT 36/18 A2973 RMK A01 T03570184  RH  036%=      5-min Rain = 0
KHA3 201941Z 18012KT 36/19 A2973 RMK A01 T03580186  RH  036%=      5-min Rain = 0
KHA3 201942Z 19011KT 36/18 A2973 RMK A01 T03580182  RH  036%=      5-min Rain = 0
KHA3 201943Z 19012KT 36/19 A2973 RMK A01 T03570189  RH  037%=      5-min Rain = 0
KHA3 201944Z 19013KT 36/19 A2973 RMK A01 T03570187  RH  037%=      5-min Rain = 0
KHA3 201945Z 18012KT 36/19 A2973 RMK A01 T03560187  RH  037%=      5-min Rain = 0
KHA3 201946Z 18011KT 36/19 A2973 RMK A01 T03560185  RH  037%=      5-min Rain = 0
KHA3 201947Z 18011KT 36/19 A2973 RMK A01 T03560189  RH  037%=      5-min Rain = 0
KHA3 201948Z 19011KT 36/19 A2973 RMK A01 T03580192  RH  038%=      5-min Rain = 0
KHA3 201949Z 20010KT 36/19 A2973 RMK A01 T03590192  RH  037%=      5-min Rain = 0
KHA3 201950Z 19010KT 36/19 A2973 RMK A01 T03600192  RH  037%=      5-min Rain = 0
KHA3 201951Z 18009KT 36/19 A2973 RMK A01 T03610193  RH  037%=      5-min Rain = 0
KHA3 201952Z 18012KT 36/19 A2973 RMK A01 T03620187  RH  036%=      5-min Rain = 0
KHA3 201953Z 18012KT 36/19 A2973 RMK A01 T03620188  RH  036%=      5-min Rain = 0
KHA3 201954Z 18012KT 36/19 A2973 RMK A01 T03620188  RH  036%=      5-min Rain = 0
KHA3 201955Z 18011KT 36/19 A2973 RMK A01 T03620185  RH  035%=      5-min Rain = 0
KHA3 201956Z 18010KT 36/19 A2973 RMK A01 T03620186  RH  036%=      5-min Rain = 0
KHA3 201957Z 18009KT 36/19 A2973 RMK A01 T03620193  RH  037%=      5-min Rain = 0
KHA3 201958Z 19010KT 36/19 A2973 RMK A01 T03630191  RH  037%=      5-min Rain = 0
KHA3 201959Z 18010KT 36/19 A2973 RMK A01 T03630193  RH  037%=      5-min Rain = 0
KHA3 202000Z 19012KT 36/19 A2973 RMK A01 T03630191  RH  037%=      5-min Rain = 0
KHA3 202001Z 19011KT 36/19 A2972 RMK A01 T03640187  RH  035%=      5-min Rain = 0
KHA3 202002Z 20009KT 36/19 A2972 RMK A01 T03630192  RH  037%=      5-min Rain = 0
KHA3 202003Z 19011KT 36/19 A2972 RMK A01 T03630194  RH  037%=      5-min Rain = 0
KHA3 202004Z 19012KT 36/19 A2972 RMK A01 T03630189  RH  036%=      5-min Rain = 0
KHA3 202005Z 19010KT 36/19 A2972 RMK A01 T03630193  RH  037%=      5-min Rain = 0
KHA3 202006Z 18010KT 36/19 A2972 RMK A01 T03630192  RH  037%=      5-min Rain = 0
KHA3 202007Z 17011KT 37/19 A2972 RMK A01 T03650189  RH  036%=      5-min Rain = 0
KHA3 202008Z 19011KT 37/19 A2972 RMK A01 T03650185  RH  035%=      5-min Rain = 0
KHA3 202009Z 18010KT 37/19 A2972 RMK A01 T03650191  RH  036%=      5-min Rain = 0
KHA3 202010Z 18010KT 37/19 A2972 RMK A01 T03650194  RH  037%=      5-min Rain = 0
KHA3 202011Z 19010KT 37/19 A2972 RMK A01 T03660188  RH  035%=      5-min Rain = 0
KHA3 202012Z 18012KT 37/18 A2972 RMK A01 T03660184  RH  034%=      5-min Rain = 0
KHA3 202013Z 19012KT 36/19 A2972 RMK A01 T03640187  RH  035%=      5-min Rain = 0
KHA3 202014Z 20012KT 37/18 A2972 RMK A01 T03650180  RH  034%=      5-min Rain = 0
KHA3 202015Z 20011KT 37/18 A2972 RMK A01 T03650176  RH  033%=      5-min Rain = 0
KHA3 202016Z 18012KT 37/19 A2972 RMK A01 T03650185  RH  035%=      5-min Rain = 0
KHA3 202017Z 18012KT 37/19 A2972 RMK A01 T03660185  RH  035%=      5-min Rain = 0
KHA3 202018Z 18011KT 37/18 A2972 RMK A01 T03670178  RH  033%=      5-min Rain = 0
KHA3 202019Z 19012KT 37/18 A2972 RMK A01 T03660182  RH  034%=      5-min Rain = 0
KHA3 202020Z 20009KT 37/18 A2972 RMK A01 T03660183  RH  034%=      5-min Rain = 0
KHA3 202021Z 18009KT 37/18 A2972 RMK A01 T03660182  RH  034%=      5-min Rain = 0
KHA3 202022Z 17008KT 37/19 A2972 RMK A01 T03670186  RH  035%=      5-min Rain = 0
KHA3 202023Z 17011KT 37/19 A2972 RMK A01 T03680185  RH  034%=      5-min Rain = 0
KHA3 202024Z 17011KT 37/18 A2972 RMK A01 T03690175  RH  032%=      5-min Rain = 0
KHA3 202025Z 19011KT 37/18 A2972 RMK A01 T03680179  RH  033%=      5-min Rain = 0
KHA3 202026Z 18011KT 37/18 A2972 RMK A01 T03680175  RH  032%=      5-min Rain = 0
KHA3 202027Z 18012KT 37/17 A2972 RMK A01 T03680171  RH  031%=      5-min Rain = 0
KHA3 202028Z 19013KT 37/17 A2972 RMK A01 T03680172  RH  032%=      5-min Rain = 0
KHA3 202029Z 19012KT 37/17 A2972 RMK A01 T03680170  RH  031%=      5-min Rain = 0
KHA3 202030Z 19010KT 37/18 A2972 RMK A01 T03670175  RH  032%=      5-min Rain = 0
KHA3 202031Z 19010KT 37/17 A2972 RMK A01 T03670174  RH  032%=      5-min Rain = 0
KHA3 202032Z 19011KT 37/18 A2972 RMK A01 T03670178  RH  033%=      5-min Rain = 0
KHA3 202033Z 19010KT 37/17 A2972 RMK A01 T03680174  RH  032%=      5-min Rain = 0
KHA3 202034Z 20008KT 37/18 A2972 RMK A01 T03680177  RH  033%=      5-min Rain = 0
KHA3 202035Z 21009KT 37/17 A2971 RMK A01 T03690172  RH  031%=      5-min Rain = 0
KHA3 202036Z 18010KT 37/18 A2971 RMK A01 T03700177  RH  032%=      5-min Rain = 0
KHA3 202037Z 18010KT 37/18 A2971 RMK A01 T03710175  RH  032%=      5-min Rain = 0
KHA3 202038Z 17008KT 37/18 A2971 RMK A01 T03720177  RH  032%=      5-min Rain = 0
KHA3 202039Z 18009KT 37/17 A2971 RMK A01 T03720174  RH  031%=      5-min Rain = 0
KHA3 202040Z 19011KT 37/18 A2971 RMK A01 T03720178  RH  032%=      5-min Rain = 0
KHA3 202041Z 19012KT 37/18 A2971 RMK A01 T03730177  RH  032%=      5-min Rain = 0
KHA3 202042Z 19014KT 37/18 A2971 RMK A01 T03730175  RH  031%=      5-min Rain = 0
KHA3 202043Z 19013KT 37/17 A2971 RMK A01 T03730169  RH  030%=      5-min Rain = 0
KHA3 202044Z 19011KT 37/17 A2971 RMK A01 T03720170  RH  031%=      5-min Rain = 0
KHA3 202045Z 19013KT 37/17 A2971 RMK A01 T03720166  RH  030%=      5-min Rain = 0
KHA3 202046Z 19011KT 37/17 A2971 RMK A01 T03710166  RH  030%=      5-min Rain = 0
KHA3 202047Z 19010KT 37/17 A2971 RMK A01 T03710173  RH  031%=      5-min Rain = 0
KHA3 202048Z 19008KT 37/17 A2971 RMK A01 T03710170  RH  031%=      5-min Rain = 0
KHA3 202049Z 19009KT 37/18 A2971 RMK A01 T03710181  RH  033%=      5-min Rain = 0
KHA3 202050Z 17009KT 37/18 A2971 RMK A01 T03720179  RH  032%=      5-min Rain = 0
KHA3 202051Z 18009KT 37/18 A2971 RMK A01 T03740181  RH  032%=      5-min Rain = 0
KHA3 202052Z 18011KT 37/18 A2971 RMK A01 T03740178  RH  032%=      5-min Rain = 0
KHA3 202053Z 21011KT 37/17 A2971 RMK A01 T03740174  RH  031%=      5-min Rain = 0
KHA3 202054Z 21012KT 37/16 A2971 RMK A01 T03740164  RH  029%=      5-min Rain = 0
KHA3 202055Z 21011KT 37/17 A2971 RMK A01 T03740168  RH  030%=      5-min Rain = 0
KHA3 202056Z 20010KT 37/17 A2971 RMK A01 T03730169  RH  030%=      5-min Rain = 0
KHA3 202057Z 20009KT 37/17 A2971 RMK A01 T03730165  RH  029%=      5-min Rain = 0
KHA3 202058Z 20008KT 37/18 A2971 RMK A01 T03730179  RH  032%=      5-min Rain = 0
KHA3 202059Z 20009KT 37/19 A2971 RMK A01 T03740188  RH  034%=      5-min Rain = 0
KHA3 202100Z 20010KT 38/18 A2971 RMK A01 T03750180  RH  032%=      5-min Rain = 0
KHA3 202101Z 20010KT 38/18 A2971 RMK A01 T03750183  RH  033%=      5-min Rain = 0
KHA3 202102Z 20009KT 38/19 A2971 RMK A01 T03750185  RH  033%=      5-min Rain = 0
KHA3 202103Z 21009KT 38/18 A2971 RMK A01 T03750177  RH  031%=      5-min Rain = 0
KHA3 202104Z 19008KT 38/18 A2971 RMK A01 T03750183  RH  033%=      5-min Rain = 0
KHA3 202105Z 17006KT 38/20 A2971 RMK A01 T03750197  RH  036%=      5-min Rain = 0
KHA3 202106Z 16009KT 38/20 A2971 RMK A01 T03750196  RH  035%=      5-min Rain = 0
KHA3 202107Z 15008KT 37/20 A2971 RMK A01 T03740196  RH  035%=      5-min Rain = 0
KHA3 202108Z 15010KT 37/20 A297 RMK A01 T03730199  RH  037%=      5-min Rain = 0
KHA3 202109Z 15009KT 37/20 A297 RMK A01 T03730198  RH  036%=      5-min Rain = 0
KHA3 202110Z 16010KT 37/19 A297 RMK A01 T03720193  RH  035%=      5-min Rain = 0
KHA3 202111Z 16011KT 37/20 A297 RMK A01 T03720196  RH  036%=      5-min Rain = 0
KHA3 202112Z 15009KT 37/19 A297 RMK A01 T03710192  RH  035%=      5-min Rain = 0
KHA3 202113Z 15011KT 37/19 A297 RMK A01 T03710194  RH  036%=      5-min Rain = 0
KHA3 202114Z 15010KT 37/19 A297 RMK A01 T03710192  RH  035%=      5-min Rain = 0
KHA3 202115Z 15007KT 37/19 A297 RMK A01 T03700187  RH  034%=      5-min Rain = 0
KHA3 202116Z 15009KT 37/20 A297 RMK A01 T03710200  RH  037%=      5-min Rain = 0
KHA3 202117Z 16012KT 37/20 A297 RMK A01 T03720195  RH  036%=      5-min Rain = 0
KHA3 202118Z 16011KT 37/19 A297 RMK A01 T03730191  RH  035%=      5-min Rain = 0
KHA3 202119Z 16011KT 37/19 A297 RMK A01 T03720189  RH  034%=      5-min Rain = 0
KHA3 202120Z 16010KT 37/19 A297 RMK A01 T03720190  RH  035%=      5-min Rain = 0
KHA3 202121Z 16009KT 37/19 A297 RMK A01 T03720187  RH  034%=      5-min Rain = 0
KHA3 202122Z 17009KT 37/19 A297 RMK A01 T03710190  RH  035%=      5-min Rain = 0
KHA3 202123Z 15010KT 37/19 A297 RMK A01 T03710189  RH  035%=      5-min Rain = 0
KHA3 202124Z 15008KT 37/19 A297 RMK A01 T03720186  RH  034%=      5-min Rain = 0
KHA3 202125Z 15009KT 37/19 A297 RMK A01 T03720191  RH  035%=      5-min Rain = 0
KHA3 202126Z 14010KT 37/19 A297 RMK A01 T03720193  RH  035%=      5-min Rain = 0
KHA3 202127Z 14011KT 37/19 A297 RMK A01 T03720186  RH  034%=      5-min Rain = 0
KHA3 202128Z 15011KT 37/19 A297 RMK A01 T03720190  RH  035%=      5-min Rain = 0
KHA3 202129Z 16010KT 37/19 A297 RMK A01 T03720191  RH  035%=      5-min Rain = 0
KHA3 202130Z 16008KT 37/19 A297 RMK A01 T03730191  RH  035%=      5-min Rain = 0
KHA3 202131Z 16011KT 37/19 A297 RMK A01 T03730191  RH  035%=      5-min Rain = 0
KHA3 202132Z 16010KT 37/19 A297 RMK A01 T03740188  RH  034%=      5-min Rain = 0
KHA3 202133Z 16012KT 37/19 A297 RMK A01 T03740192  RH  035%=      5-min Rain = 0
KHA3 202134Z 16012KT 37/18 A297 RMK A01 T03740184  RH  033%=      5-min Rain = 0
KHA3 202135Z 16009KT 37/19 A297 RMK A01 T03740190  RH  034%=      5-min Rain = 0
KHA3 202136Z 16010KT 37/18 A297 RMK A01 T03740181  RH  032%=      5-min Rain = 0
KHA3 202137Z 17009KT 37/19 A2969 RMK A01 T03740185  RH  033%=      5-min Rain = 0
KHA3 202138Z 18011KT 38/19 A2969 RMK A01 T03750185  RH  033%=      5-min Rain = 0
KHA3 202139Z 17008KT 38/19 A2969 RMK A01 T03750185  RH  033%=      5-min Rain = 0
KHA3 202140Z 18006KT 38/19 A2969 RMK A01 T03750194  RH  035%=      5-min Rain = 0
KHA3 202141Z 16007KT 38/20 A2969 RMK A01 T03770198  RH  035%=      5-min Rain = 0
KHA3 202142Z 16009KT 38/19 A2969 RMK A01 T03780189  RH  033%=      5-min Rain = 0
KHA3 202143Z 17008KT 38/19 A2969 RMK A01 T03780187  RH  033%=      5-min Rain = 0
KHA3 202144Z 17008KT 38/20 A2969 RMK A01 T03780195  RH  034%=      5-min Rain = 0
KHA3 202145Z 16010KT 38/19 A2969 RMK A01 T03780194  RH  034%=      5-min Rain = 0
KHA3 202146Z 16012KT 38/18 A2969 RMK A01 T03780183  RH  032%=      5-min Rain = 0
KHA3 202147Z 16011KT 38/18 A2969 RMK A01 T03770179  RH  031%=      5-min Rain = 0
KHA3 202148Z 16012KT 38/18 A2969 RMK A01 T03770179  RH  031%=      5-min Rain = 0
KHA3 202149Z 16011KT 38/18 A2969 RMK A01 T03770183  RH  032%=      5-min Rain = 0
KHA3 202150Z 16011KT 38/18 A2969 RMK A01 T03760183  RH  032%=      5-min Rain = 0
KHA3 202151Z 16010KT 38/18 A2969 RMK A01 T03770183  RH  032%=      5-min Rain = 0
KHA3 202152Z 15012KT 38/18 A2969 RMK A01 T03770183  RH  032%=      5-min Rain = 0
KHA3 202153Z 15012KT 38/17 A2969 RMK A01 T03770171  RH  030%=      5-min Rain = 0
KHA3 202154Z 15012KT 38/17 A2969 RMK A01 T03770173  RH  030%=      5-min Rain = 0
KHA3 202155Z 15010KT 38/17 A2969 RMK A01 T03770173  RH  030%=      5-min Rain = 0
KHA3 202156Z 15012KT 38/18 A2969 RMK A01 T03770178  RH  031%=      5-min Rain = 0
KHA3 202157Z 16011KT 38/17 A2969 RMK A01 T03770169  RH  029%=      5-min Rain = 0
KHA3 202158Z 16011KT 38/17 A2969 RMK A01 T03770171  RH  030%=      5-min Rain = 0
KHA3 202159Z 16010KT 38/18 A2969 RMK A01 T03770175  RH  031%=      5-min Rain = 0
KHA3 202200Z 16011KT 38/17 A2969 RMK A01 T03780174  RH  030%=      5-min Rain = 0
KHA3 202201Z 16011KT 38/17 A2969 RMK A01 T03780174  RH  030%=      5-min Rain = 0
KHA3 202202Z 17011KT 38/18 A2969 RMK A01 T03780182  RH  032%=      5-min Rain = 0
KHA3 202203Z 16011KT 38/17 A2969 RMK A01 T03780172  RH  030%=      5-min Rain = 0
KHA3 202204Z 16010KT 38/18 A2969 RMK A01 T03780183  RH  032%=      5-min Rain = 0
KHA3 202205Z 16011KT 38/17 A2969 RMK A01 T03790173  RH  030%=      5-min Rain = 0
KHA3 202206Z 17010KT 38/18 A2969 RMK A01 T03790176  RH  030%=      5-min Rain = 0
KHA3 202207Z 17011KT 38/18 A2969 RMK A01 T03790176  RH  030%=      5-min Rain = 0
KHA3 202208Z 17011KT 38/17 A2969 RMK A01 T03790166  RH  029%=      5-min Rain = 0
KHA3 202209Z 16010KT 38/17 A2969 RMK A01 T03790173  RH  030%=      5-min Rain = 0
KHA3 202210Z 15010KT 38/17 A2969 RMK A01 T03800169  RH  029%=      5-min Rain = 0
KHA3 202211Z 16010KT 38/18 A2969 RMK A01 T03800175  RH  030%=      5-min Rain = 0
KHA3 202212Z 15012KT 38/18 A2969 RMK A01 T03800179  RH  031%=      5-min Rain = 0
KHA3 202213Z 16011KT 38/18 A2969 RMK A01 T03790177  RH  031%=      5-min Rain = 0
KHA3 202214Z 16011KT 38/18 A2968 RMK A01 T03800178  RH  031%=      5-min Rain = 0
KHA3 202215Z 16012KT 38/18 A2968 RMK A01 T03790178  RH  031%=      5-min Rain = 0
KHA3 202216Z 15011KT 38/18 A2968 RMK A01 T03790179  RH  031%=      5-min Rain = 0
KHA3 202217Z 16012KT 38/18 A2968 RMK A01 T03790175  RH  030%=      5-min Rain = 0
KHA3 202218Z 16010KT 38/18 A2968 RMK A01 T03790178  RH  031%=      5-min Rain = 0
KHA3 202219Z 17011KT 38/18 A2968 RMK A01 T03790176  RH  031%=      5-min Rain = 0
KHA3 202220Z 16010KT 38/19 A2968 RMK A01 T03790185  RH  032%=      5-min Rain = 0
KHA3 202221Z 17012KT 38/18 A2968 RMK A01 T03800180  RH  031%=      5-min Rain = 0
KHA3 202222Z 17014KT 38/17 A2968 RMK A01 T03800173  RH  030%=      5-min Rain = 0
KHA3 202223Z 18013KT 38/17 A2968 RMK A01 T03800172  RH  030%=      5-min Rain = 0
KHA3 202224Z 17011KT 38/17 A2968 RMK A01 T03800172  RH  030%=      5-min Rain = 0
KHA3 202225Z 17010KT 38/18 A2968 RMK A01 T03800178  RH  031%=      5-min Rain = 0
KHA3 202226Z 16010KT 38/18 A2968 RMK A01 T03800176  RH  030%=      5-min Rain = 0
KHA3 202227Z 16011KT 38/18 A2968 RMK A01 T03800183  RH  032%=      5-min Rain = 0
KHA3 202228Z 17009KT 38/18 A2968 RMK A01 T03800182  RH  031%=      5-min Rain = 0
KHA3 202229Z 16011KT 38/19 A2968 RMK A01 T03800187  RH  032%=      5-min Rain = 0
KHA3 202230Z 17013KT 38/18 A2968 RMK A01 T03800183  RH  032%=      5-min Rain = 0
KHA3 202231Z 17012KT 38/17 A2968 RMK A01 T03800171  RH  030%=      5-min Rain = 0
KHA3 202232Z 16010KT 38/18 A2968 RMK A01 T03790183  RH  032%=      5-min Rain = 0
KHA3 202233Z 17012KT 38/17 A2968 RMK A01 T03790171  RH  030%=      5-min Rain = 0
KHA3 202234Z 17013KT 38/17 A2968 RMK A01 T03790172  RH  030%=      5-min Rain = 0
KHA3 202235Z 16012KT 38/17 A2968 RMK A01 T03790166  RH  029%=      5-min Rain = 0
KHA3 202236Z 17010KT 38/18 A2968 RMK A01 T03790179  RH  031%=      5-min Rain = 0
KHA3 202237Z 17012KT 38/18 A2968 RMK A01 T03790176  RH  031%=      5-min Rain = 0
KHA3 202238Z 16011KT 38/18 A2968 RMK A01 T03790179  RH  031%=      5-min Rain = 0
KHA3 202239Z 17010KT 38/18 A2968 RMK A01 T03790184  RH  032%=      5-min Rain = 0
KHA3 202240Z 17011KT 38/18 A2968 RMK A01 T03790180  RH  031%=      5-min Rain = 0
KHA3 202241Z 17011KT 38/17 A2968 RMK A01 T03790173  RH  030%=      5-min Rain = 0
KHA3 202242Z 16012KT 38/17 A2968 RMK A01 T03780173  RH  030%=      5-min Rain = 0
KHA3 202243Z 17013KT 38/17 A2968 RMK A01 T03780169  RH  029%=      5-min Rain = 0
KHA3 202244Z 16010KT 38/18 A2968 RMK A01 T03770178  RH  031%=      5-min Rain = 0
KHA3 202245Z 16013KT 38/18 A2968 RMK A01 T03770176  RH  031%=      5-min Rain = 0
KHA3 202246Z 16012KT 38/17 A2968 RMK A01 T03770170  RH  030%=      5-min Rain = 0
KHA3 202247Z 16013KT 38/17 A2968 RMK A01 T03770171  RH  030%=      5-min Rain = 0
KHA3 202248Z 16011KT 38/17 A2968 RMK A01 T03770171  RH  030%=      5-min Rain = 0
KHA3 202249Z 17013KT 38/17 A2967 RMK A01 T03770166  RH  029%=      5-min Rain = 0
KHA3 202250Z 16013KT 38/16 A2967 RMK A01 T03770163  RH  028%=      5-min Rain = 0
KHA3 202251Z 16010KT 38/17 A2967 RMK A01 T03770169  RH  029%=      5-min Rain = 0
KHA3 202252Z 16011KT 38/17 A2967 RMK A01 T03770169  RH  029%=      5-min Rain = 0
KHA3 202253Z 16013KT 38/17 A2967 RMK A01 T03780165  RH  029%=      5-min Rain = 0
KHA3 202254Z 16012KT 38/16 A2967 RMK A01 T03780161  RH  028%=      5-min Rain = 0
KHA3 202255Z 16010KT 38/17 A2967 RMK A01 T03780169  RH  029%=      5-min Rain = 0
KHA3 202256Z 17012KT 38/17 A2967 RMK A01 T03780165  RH  029%=      5-min Rain = 0
KHA3 202257Z 16011KT 38/16 A2967 RMK A01 T03780163  RH  028%=      5-min Rain = 0
KHA3 202258Z 16012KT 38/16 A2967 RMK A01 T03780161  RH  028%=      5-min Rain = 0
KHA3 202259Z 16011KT 38/17 A2967 RMK A01 T03780165  RH  029%=      5-min Rain = 0
KHA3 202300Z 16010KT 38/17 A2967 RMK A01 T03780166  RH  029%=      5-min Rain = 0
KHA3 202301Z 17009KT 38/18 A2967 RMK A01 T03780176  RH  031%=      5-min Rain = 0
KHA3 202302Z 16009KT 38/18 A2967 RMK A01 T03780176  RH  031%=      5-min Rain = 0
KHA3 202303Z 16010KT 38/17 A2967 RMK A01 T03780171  RH  030%=      5-min Rain = 0
KHA3 202304Z 16010KT 38/16 A2967 RMK A01 T03770164  RH  029%=      5-min Rain = 0
KHA3 202305Z 16012KT 38/16 A2967 RMK A01 T03770163  RH  028%=      5-min Rain = 0
KHA3 202306Z 16011KT 38/16 A2967 RMK A01 T03770160  RH  028%=      5-min Rain = 0
KHA3 202307Z 16011KT 38/16 A2967 RMK A01 T03770163  RH  028%=      5-min Rain = 0
KHA3 202308Z 16012KT 38/16 A2967 RMK A01 T03760162  RH  028%=      5-min Rain = 0
KHA3 202309Z 16010KT 38/16 A2967 RMK A01 T03760162  RH  028%=      5-min Rain = 0
KHA3 202310Z 16011KT 38/17 A2967 RMK A01 T03750168  RH  030%=      5-min Rain = 0
KHA3 202311Z 16011KT 38/17 A2967 RMK A01 T03750168  RH  030%=      5-min Rain = 0
KHA3 202312Z 16010KT 38/17 A2967 RMK A01 T03750168  RH  030%=      5-min Rain = 0
KHA3 202313Z 16011KT 38/17 A2967 RMK A01 T03750166  RH  029%=      5-min Rain = 0
KHA3 202314Z 16011KT 38/17 A2966 RMK A01 T03750165  RH  029%=      5-min Rain = 0
KHA3 202315Z 16010KT 38/17 A2966 RMK A01 T03750173  RH  031%=      5-min Rain = 0
KHA3 202316Z 16011KT 38/17 A2966 RMK A01 T03750165  RH  029%=      5-min Rain = 0
KHA3 202317Z 16012KT 38/16 A2966 RMK A01 T03750159  RH  028%=      5-min Rain = 0
KHA3 202318Z 17009KT 38/17 A2966 RMK A01 T03750171  RH  030%=      5-min Rain = 0
KHA3 202319Z 16012KT 38/16 A2966 RMK A01 T03750161  RH  028%=      5-min Rain = 0
KHA3 202320Z 16011KT 38/16 A2966 RMK A01 T03750159  RH  028%=      5-min Rain = 0
KHA3 202321Z 16010KT 38/16 A2966 RMK A01 T03750159  RH  028%=      5-min Rain = 0
KHA3 202322Z 16011KT 38/16 A2966 RMK A01 T03750162  RH  029%=      5-min Rain = 0
KHA3 202323Z 16012KT 37/15 A2966 RMK A01 T03740152  RH  027%=      5-min Rain = 0
KHA3 202324Z 16009KT 38/16 A2966 RMK A01 T03750161  RH  028%=      5-min Rain = 0
KHA3 202325Z 16012KT 38/16 A2966 RMK A01 T03750159  RH  028%=      5-min Rain = 0
KHA3 202326Z 16011KT 37/16 A2966 RMK A01 T03740161  RH  028%=      5-min Rain = 0
KHA3 202327Z 17012KT 37/16 A2966 RMK A01 T03740155  RH  027%=      5-min Rain = 0
KHA3 202328Z 17011KT 37/16 A2966 RMK A01 T03740160  RH  028%=      5-min Rain = 0
KHA3 202329Z 17011KT 37/16 A2966 RMK A01 T03730161  RH  029%=      5-min Rain = 0
KHA3 202330Z 17012KT 37/15 A2966 RMK A01 T03730154  RH  027%=      5-min Rain = 0
KHA3 202331Z 17010KT 37/15 A2966 RMK A01 T03740154  RH  027%=      5-min Rain = 0
KHA3 202332Z 17010KT 37/16 A2966 RMK A01 T03740157  RH  028%=      5-min Rain = 0
KHA3 202333Z 16010KT 37/16 A2966 RMK A01 T03740158  RH  028%=      5-min Rain = 0
KHA3 202334Z 17010KT 37/16 A2966 RMK A01 T03730161  RH  029%=      5-min Rain = 0
KHA3 202335Z 17010KT 37/16 A2966 RMK A01 T03730157  RH  028%=      5-min Rain = 0
KHA3 202336Z 17011KT 37/16 A2966 RMK A01 T03720159  RH  028%=      5-min Rain = 0
KHA3 202337Z 17011KT 37/15 A2966 RMK A01 T03720151  RH  027%=      5-min Rain = 0
KHA3 202338Z 17009KT 37/16 A2966 RMK A01 T03720162  RH  029%=      5-min Rain = 0
KHA3 202339Z 17009KT 37/17 A2966 RMK A01 T03710166  RH  030%=      5-min Rain = 0
KHA3 202340Z 16009KT 37/17 A2966 RMK A01 T03710167  RH  030%=      5-min Rain = 0
KHA3 202341Z 17010KT 37/17 A2966 RMK A01 T03710165  RH  030%=      5-min Rain = 0
KHA3 202342Z 17010KT 37/16 A2966 RMK A01 T03700162  RH  029%=      5-min Rain = 0
KHA3 202343Z 17010KT 37/16 A2966 RMK A01 T03700161  RH  029%=      5-min Rain = 0
KHA3 202344Z 17010KT 37/16 A2966 RMK A01 T03700161  RH  029%=      5-min Rain = 0
KHA3 202345Z 17011KT 37/16 A2966 RMK A01 T03700158  RH  029%=      5-min Rain = 0
KHA3 202346Z 17011KT 37/16 A2966 RMK A01 T03700160  RH  029%=      5-min Rain = 0
KHA3 202347Z 16010KT 37/16 A2966 RMK A01 T03690161  RH  029%=      5-min Rain = 0
KHA3 202348Z 16011KT 37/16 A2966 RMK A01 T03690156  RH  028%=      5-min Rain = 0
KHA3 202349Z 16010KT 37/15 A2966 RMK A01 T03690153  RH  028%=      5-min Rain = 0
KHA3 202350Z 16010KT 37/16 A2966 RMK A01 T03690158  RH  029%=      5-min Rain = 0
KHA3 202351Z 16010KT 37/16 A2966 RMK A01 T03680156  RH  029%=      5-min Rain = 0
KHA3 202352Z 16010KT 37/16 A2966 RMK A01 T03680160  RH  029%=      5-min Rain = 0
KHA3 202353Z 16010KT 37/16 A2965 RMK A01 T03670160  RH  029%=      5-min Rain = 0
KHA3 202354Z 16011KT 37/16 A2965 RMK A01 T03670157  RH  029%=      5-min Rain = 0
KHA3 202355Z 16010KT 37/16 A2965 RMK A01 T03670158  RH  029%=      5-min Rain = 0
KHA3 202356Z 17009KT 37/16 A2965 RMK A01 T03660161  RH  030%=      5-min Rain = 0
KHA3 202357Z 16010KT 37/16 A2965 RMK A01 T03650162  RH  030%=      5-min Rain = 0
KHA3 202358Z 17010KT 37/16 A2965 RMK A01 T03650159  RH  030%=      5-min Rain = 0
KHA3 202359Z 17010KT 36/16 A2965 RMK A01 T03640161  RH  030%=      5-min Rain = 0
KHA3 210000Z 17010KT 36/16 A2965 RMK A01 T03640159  RH  030%=      5-min Rain = 0
KHA3 210001Z 17009KT 36/16 A2966 RMK A01 T03640162  RH  030%=      5-min Rain = 0
KHA3 210002Z 17010KT 36/16 A2965 RMK A01 T03630163  RH  031%=      5-min Rain = 0
KHA3 210003Z 17010KT 36/16 A2965 RMK A01 T03630158  RH  030%=      5-min Rain = 0
KHA3 210004Z 17009KT 36/16 A2965 RMK A01 T03630160  RH  030%=      5-min Rain = 0
KHA3 210005Z 16010KT 36/16 A2965 RMK A01 T03620159  RH  030%=      5-min Rain = 0
KHA3 210006Z 16009KT 36/16 A2965 RMK A01 T03620161  RH  030%=      5-min Rain = 0
KHA3 210007Z 17009KT 36/16 A2965 RMK A01 T03620157  RH  030%=      5-min Rain = 0
KHA3 210008Z 16010KT 36/16 A2965 RMK A01 T03620158  RH  030%=      5-min Rain = 0
KHA3 210009Z 16009KT 36/16 A2965 RMK A01 T03610157  RH  030%=      5-min Rain = 0
KHA3 210010Z 15009KT 36/16 A2965 RMK A01 T03610158  RH  030%=      5-min Rain = 0
KHA3 210011Z 15009KT 36/16 A2965 RMK A01 T03610162  RH  031%=      5-min Rain = 0
KHA3 210012Z 15009KT 36/16 A2965 RMK A01 T03600162  RH  031%=      5-min Rain = 0
KHA3 210013Z 15010KT 36/16 A2965 RMK A01 T03590158  RH  030%=      5-min Rain = 0
KHA3 210014Z 15010KT 36/16 A2965 RMK A01 T03590158  RH  030%=      5-min Rain = 0
KHA3 210015Z 16011KT 36/15 A2965 RMK A01 T03590154  RH  030%=      5-min Rain = 0
KHA3 210016Z 16010KT 36/15 A2965 RMK A01 T03590151  RH  029%=      5-min Rain = 0
KHA3 210017Z 16010KT 36/15 A2965 RMK A01 T03590153  RH  029%=      5-min Rain = 0
KHA3 210018Z 16009KT 36/15 A2965 RMK A01 T03600152  RH  029%=      5-min Rain = 0
KHA3 210019Z 16009KT 36/16 A2965 RMK A01 T03590155  RH  030%=      5-min Rain = 0
KHA3 210020Z 16009KT 36/16 A2965 RMK A01 T03580155  RH  030%=      5-min Rain = 0
KHA3 210021Z 16009KT 36/15 A2965 RMK A01 T03570152  RH  029%=      5-min Rain = 0
KHA3 210022Z 16010KT 36/15 A2965 RMK A01 T03570149  RH  029%=      5-min Rain = 0
KHA3 210023Z 16010KT 36/15 A2965 RMK A01 T03570147  RH  029%=      5-min Rain = 0
KHA3 210024Z 16010KT 36/15 A2965 RMK A01 T03570150  RH  029%=      5-min Rain = 0
KHA3 210025Z 16010KT 36/15 A2965 RMK A01 T03570151  RH  029%=      5-min Rain = 0
KHA3 210026Z 16011KT 36/15 A2965 RMK A01 T03550150  RH  029%=      5-min Rain = 0
KHA3 210027Z 16010KT 36/15 A2965 RMK A01 T03550149  RH  029%=      5-min Rain = 0
KHA3 210028Z 16009KT 35/15 A2965 RMK A01 T03540146  RH  029%=      5-min Rain = 0
KHA3 210029Z 16009KT 36/15 A2965 RMK A01 T03550153  RH  030%=      5-min Rain = 0
KHA3 210030Z 16009KT 35/15 A2965 RMK A01 T03540153  RH  030%=      5-min Rain = 0
KHA3 210031Z 16009KT 35/16 A2965 RMK A01 T03530156  RH  031%=      5-min Rain = 0
KHA3 210032Z 15009KT 35/16 A2965 RMK A01 T03520156  RH  031%=      5-min Rain = 0
KHA3 210033Z 15008KT 35/16 A2965 RMK A01 T03510160  RH  032%=      5-min Rain = 0
KHA3 210034Z 15008KT 35/16 A2965 RMK A01 T03500162  RH  033%=      5-min Rain = 0
KHA3 210035Z 15008KT 35/16 A2965 RMK A01 T03490162  RH  033%=      5-min Rain = 0
KHA3 210036Z 15008KT 35/16 A2965 RMK A01 T03480161  RH  033%=      5-min Rain = 0
KHA3 210037Z 15008KT 35/16 A2965 RMK A01 T03480162  RH  033%=      5-min Rain = 0
KHA3 210038Z 15009KT 35/16 A2965 RMK A01 T03480163  RH  033%=      5-min Rain = 0
KHA3 210039Z 15009KT 35/16 A2965 RMK A01 T03470160  RH  033%=      5-min Rain = 0
KHA3 210040Z 15009KT 35/16 A2965 RMK A01 T03470160  RH  033%=      5-min Rain = 0
KHA3 210041Z 15009KT 35/16 A2965 RMK A01 T03470162  RH  033%=      5-min Rain = 0
KHA3 210042Z 15009KT 35/16 A2965 RMK A01 T03470162  RH  033%=      5-min Rain = 0
KHA3 210043Z 15010KT 35/16 A2965 RMK A01 T03470160  RH  033%=      5-min Rain = 0
KHA3 210044Z 15009KT 35/16 A2965 RMK A01 T03470159  RH  033%=      5-min Rain = 0
KHA3 210045Z 15009KT 35/16 A2965 RMK A01 T03470164  RH  034%=      5-min Rain = 0
KHA3 210046Z 15010KT 35/16 A2965 RMK A01 T03470163  RH  034%=      5-min Rain = 0
KHA3 210047Z 15009KT 35/17 A2965 RMK A01 T03460165  RH  034%=      5-min Rain = 0
KHA3 210048Z 15009KT 35/17 A2965 RMK A01 T03450166  RH  035%=      5-min Rain = 0
KHA3 210049Z 15009KT 34/17 A2965 RMK A01 T03440165  RH  034%=      5-min Rain = 0
KHA3 210050Z 15010KT 34/17 A2965 RMK A01 T03430165  RH  035%=      5-min Rain = 0
KHA3 210051Z 15009KT 34/17 A2965 RMK A01 T03430168  RH  035%=      5-min Rain = 0
KHA3 210052Z 15009KT 34/17 A2965 RMK A01 T03410166  RH  035%=      5-min Rain = 0
KHA3 210053Z 15010KT 34/17 A2965 RMK A01 T03410166  RH  035%=      5-min Rain = 0
KHA3 210054Z 15009KT 34/17 A2965 RMK A01 T03410166  RH  035%=      5-min Rain = 0
KHA3 210055Z 15010KT 34/17 A2965 RMK A01 T03400165  RH  035%=      5-min Rain = 0
KHA3 210056Z 15009KT 34/17 A2965 RMK A01 T03400165  RH  035%=      5-min Rain = 0
KHA3 210057Z 15010KT 34/17 A2965 RMK A01 T03400165  RH  035%=      5-min Rain = 0
KHA3 210058Z 15010KT 34/17 A2965 RMK A01 T03400165  RH  035%=      5-min Rain = 0
KHA3 210059Z 15010KT 34/16 A2965 RMK A01 T03390163  RH  035%=      5-min Rain = 0
KHA3 210100Z 15009KT 34/16 A2965 RMK A01 T03390163  RH  035%=      5-min Rain = 0
KHA3 210101Z 15009KT 34/17 A2965 RMK A01 T03390166  RH  036%=      5-min Rain = 0
KHA3 210102Z 15010KT 34/17 A2965 RMK A01 T03370167  RH  036%=      5-min Rain = 0
KHA3 210103Z 15009KT 34/17 A2965 RMK A01 T03360166  RH  036%=      5-min Rain = 0
KHA3 210104Z 15009KT 34/17 A2965 RMK A01 T03350165  RH  036%=      5-min Rain = 0
KHA3 210105Z 15009KT 33/17 A2965 RMK A01 T03340166  RH  037%=      5-min Rain = 0
KHA3 210106Z 15009KT 33/17 A2965 RMK A01 T03330167  RH  037%=      5-min Rain = 0
KHA3 210107Z 15009KT 33/17 A2965 RMK A01 T03320165  RH  037%=      5-min Rain = 0
KHA3 210108Z 15009KT 33/17 A2965 RMK A01 T03320166  RH  037%=      5-min Rain = 0
KHA3 210109Z 15009KT 33/16 A2965 RMK A01 T03310164  RH  037%=      5-min Rain = 0
KHA3 210110Z 15009KT 33/17 A2965 RMK A01 T03310165  RH  037%=      5-min Rain = 0
KHA3 210111Z 15009KT 33/17 A2965 RMK A01 T03300166  RH  037%=      5-min Rain = 0
KHA3 210112Z 15010KT 33/17 A2965 RMK A01 T03290165  RH  037%=      5-min Rain = 0
KHA3 210113Z 15010KT 33/16 A2965 RMK A01 T03290163  RH  037%=      5-min Rain = 0
KHA3 210114Z 15009KT 33/16 A2965 RMK A01 T03290163  RH  037%=      5-min Rain = 0
KHA3 210115Z 15010KT 33/16 A2965 RMK A01 T03290163  RH  037%=      5-min Rain = 0
KHA3 210116Z 15009KT 33/16 A2965 RMK A01 T03290163  RH  037%=      5-min Rain = 0
KHA3 210117Z 15010KT 33/16 A2965 RMK A01 T03280163  RH  037%=      5-min Rain = 0
KHA3 210118Z 15009KT 33/16 A2965 RMK A01 T03270162  RH  037%=      5-min Rain = 0
KHA3 210119Z 15009KT 33/16 A2965 RMK A01 T03270164  RH  038%=      5-min Rain = 0
KHA3 210120Z 15010KT 33/16 A2965 RMK A01 T03250163  RH  038%=      5-min Rain = 0
KHA3 210121Z 15010KT 32/16 A2965 RMK A01 T03240164  RH  038%=      5-min Rain = 0
KHA3 210122Z 14010KT 32/16 A2965 RMK A01 T03230163  RH  038%=      5-min Rain = 0
KHA3 210123Z 15010KT 32/16 A2965 RMK A01 T03230162  RH  038%=      5-min Rain = 0
KHA3 210124Z 15011KT 32/16 A2965 RMK A01 T03230163  RH  038%=      5-min Rain = 0
KHA3 210125Z 15010KT 32/16 A2965 RMK A01 T03230163  RH  038%=      5-min Rain = 0
KHA3 210126Z 15010KT 32/17 A2965 RMK A01 T03220165  RH  039%=      5-min Rain = 0
KHA3 210127Z 15010KT 32/17 A2965 RMK A01 T03210165  RH  039%=      5-min Rain = 0
KHA3 210128Z 14010KT 32/16 A2965 RMK A01 T03210164  RH  039%=      5-min Rain = 0
KHA3 210129Z 15010KT 32/17 A2965 RMK A01 T03200165  RH  039%=      5-min Rain = 0
KHA3 210130Z 14010KT 32/17 A2965 RMK A01 T03190165  RH  040%=      5-min Rain = 0
KHA3 210131Z 14010KT 32/17 A2965 RMK A01 T03180165  RH  040%=      5-min Rain = 0
KHA3 210132Z 14011KT 32/17 A2965 RMK A01 T03180165  RH  040%=      5-min Rain = 0
KHA3 210133Z 15011KT 32/16 A2965 RMK A01 T03180164  RH  040%=      5-min Rain = 0
KHA3 210134Z 14011KT 32/17 A2965 RMK A01 T03190165  RH  040%=      5-min Rain = 0
KHA3 210135Z 14011KT 32/17 A2965 RMK A01 T03180165  RH  040%=      5-min Rain = 0
KHA3 210136Z 14010KT 32/17 A2965 RMK A01 T03180166  RH  040%=      5-min Rain = 0
KHA3 210137Z 15010KT 32/17 A2965 RMK A01 T03180167  RH  040%=      5-min Rain = 0
KHA3 210138Z 15010KT 32/17 A2965 RMK A01 T03160168  RH  041%=      5-min Rain = 0
KHA3 210139Z 15010KT 31/17 A2965 RMK A01 T03140168  RH  042%=      5-min Rain = 0
KHA3 210140Z 15011KT 31/17 A2965 RMK A01 T03120168  RH  042%=      5-min Rain = 0
KHA3 210141Z 15010KT 31/17 A2965 RMK A01 T03110169  RH  042%=      5-min Rain = 0
KHA3 210142Z 14010KT 31/17 A2966 RMK A01 T03100169  RH  043%=      5-min Rain = 0
KHA3 210143Z 14011KT 31/17 A2966 RMK A01 T03100170  RH  043%=      5-min Rain = 0
KHA3 210144Z 14011KT 31/17 A2966 RMK A01 T03080169  RH  043%=      5-min Rain = 0
KHA3 210145Z 14011KT 31/17 A2966 RMK A01 T03090168  RH  043%=      5-min Rain = 0
KHA3 210146Z 15011KT 31/17 A2966 RMK A01 T03100169  RH  043%=      5-min Rain = 0
KHA3 210147Z 15012KT 31/17 A2966 RMK A01 T03100170  RH  043%=      5-min Rain = 0
KHA3 210148Z 15011KT 31/17 A2966 RMK A01 T03100170  RH  043%=      5-min Rain = 0
KHA3 210149Z 15011KT 31/17 A2966 RMK A01 T03100170  RH  043%=      5-min Rain = 0
KHA3 210150Z 15011KT 31/17 A2966 RMK A01 T03090170  RH  043%=      5-min Rain = 0
KHA3 210151Z 15011KT 31/17 A2966 RMK A01 T03100171  RH  043%=      5-min Rain = 0
KHA3 210152Z 15011KT 31/17 A2966 RMK A01 T03090171  RH  043%=      5-min Rain = 0
KHA3 210153Z 15011KT 31/17 A2966 RMK A01 T03090171  RH  044%=      5-min Rain = 0
KHA3 210154Z 15011KT 31/17 A2966 RMK A01 T03080172  RH  044%=      5-min Rain = 0
KHA3 210155Z 15011KT 31/17 A2966 RMK A01 T03080172  RH  044%=      5-min Rain = 0
KHA3 210156Z 15011KT 31/17 A2966 RMK A01 T03070171  RH  044%=      5-min Rain = 0
KHA3 210157Z 15011KT 31/17 A2966 RMK A01 T03070170  RH  044%=      5-min Rain = 0
KHA3 210158Z 15012KT 31/17 A2966 RMK A01 T03080171  RH  044%=      5-min Rain = 0
KHA3 210159Z 15012KT 31/17 A2966 RMK A01 T03090172  RH  044%=      5-min Rain = 0
KHA3 210200Z 15012KT 31/17 A2966 RMK A01 T03100172  RH  044%=      5-min Rain = 0
KHA3 210201Z 15011KT 31/17 A2966 RMK A01 T03110174  RH  044%=      5-min Rain = 0
KHA3 210202Z 15012KT 31/18 A2966 RMK A01 T03120175  RH  044%=      5-min Rain = 0
KHA3 210203Z 15013KT 31/18 A2966 RMK A01 T03130176  RH  044%=      5-min Rain = 0
KHA3 210204Z 15014KT 31/18 A2966 RMK A01 T03140177  RH  044%=      5-min Rain = 0
KHA3 210205Z 15013KT 31/18 A2966 RMK A01 T03140178  RH  044%=      5-min Rain = 0
KHA3 210206Z 15013KT 32/18 A2966 RMK A01 T03160180  RH  044%=      5-min Rain = 0
KHA3 210207Z 15014KT 32/18 A2966 RMK A01 T03160181  RH  045%=      5-min Rain = 0
KHA3 210208Z 16014KT 32/18 A2966 RMK A01 T03160182  RH  045%=      5-min Rain = 0
KHA3 210209Z 15014KT 32/18 A2966 RMK A01 T03160182  RH  045%=      5-min Rain = 0
KHA3 210210Z 16014G19KT 32/18 A2966 RMK A01 T03160184  RH  045%=      5-min Rain = 0
KHA3 210211Z 16014KT 32/19 A2966 RMK A01 T03160185  RH  046%=      5-min Rain = 0
KHA3 210212Z 15013KT 32/19 A2966 RMK A01 T03160186  RH  046%=      5-min Rain = 0
KHA3 210213Z 16013KT 32/19 A2966 RMK A01 T03150188  RH  047%=      5-min Rain = 0
KHA3 210214Z 16014KT 31/19 A2966 RMK A01 T03140188  RH  047%=      5-min Rain = 0
KHA3 210215Z 15014KT 31/19 A2966 RMK A01 T03140189  RH  047%=      5-min Rain = 0
KHA3 210216Z 15014KT 31/19 A2966 RMK A01 T03140190  RH  048%=      5-min Rain = 0
KHA3 210217Z 15014KT 31/19 A2966 RMK A01 T03140191  RH  048%=      5-min Rain = 0
KHA3 210218Z 16015KT 31/19 A2966 RMK A01 T03140192  RH  048%=      5-min Rain = 0
KHA3 210219Z 15014KT 32/19 A2966 RMK A01 T03150193  RH  049%=      5-min Rain = 0
KHA3 210220Z 16014KT 32/20 A2966 RMK A01 T03150195  RH  049%=      5-min Rain = 0
KHA3 210221Z 16015KT 31/20 A2966 RMK A01 T03140195  RH  049%=      5-min Rain = 0
KHA3 210222Z 16015KT 31/20 A2966 RMK A01 T03140196  RH  050%=      5-min Rain = 0
KHA3 210223Z 16015KT 31/20 A2966 RMK A01 T03140197  RH  050%=      5-min Rain = 0
KHA3 210224Z 15014KT 31/20 A2966 RMK A01 T03140198  RH  050%=      5-min Rain = 0
KHA3 210225Z 16016KT 31/20 A2966 RMK A01 T03140199  RH  050%=      5-min Rain = 0
KHA3 210226Z 15015KT 31/20 A2966 RMK A01 T03140199  RH  051%=      5-min Rain = 0
KHA3 210227Z 16014KT 31/20 A2966 RMK A01 T03140200  RH  051%=      5-min Rain = 0
KHA3 210228Z 16014KT 31/20 A2966 RMK A01 T03140200  RH  051%=      5-min Rain = 0
KHA3 210229Z 15014KT 31/20 A2966 RMK A01 T03140201  RH  051%=      5-min Rain = 0
KHA3 210230Z 15014KT 31/20 A2966 RMK A01 T03140202  RH  051%=      5-min Rain = 0
KHA3 210231Z 16015KT 31/20 A2966 RMK A01 T03130202  RH  052%=      5-min Rain = 0
KHA3 210232Z 16015KT 31/20 A2966 RMK A01 T03130202  RH  052%=      5-min Rain = 0
KHA3 210233Z 15015KT 31/20 A2966 RMK A01 T03130202  RH  052%=      5-min Rain = 0
KHA3 210234Z 16014KT 31/20 A2966 RMK A01 T03130203  RH  052%=      5-min Rain = 0
KHA3 210235Z 16014KT 31/20 A2966 RMK A01 T03130203  RH  052%=      5-min Rain = 0
KHA3 210236Z 16015KT 31/20 A2966 RMK A01 T03130203  RH  052%=      5-min Rain = 0
KHA3 210237Z 15015KT 31/20 A2966 RMK A01 T03130204  RH  052%=      5-min Rain = 0
KHA3 210238Z 16015KT 31/20 A2966 RMK A01 T03130204  RH  052%=      5-min Rain = 0
KHA3 210239Z 16015KT 31/20 A2966 RMK A01 T03130204  RH  052%=      5-min Rain = 0
KHA3 210240Z 16016KT 31/20 A2966 RMK A01 T03130204  RH  052%=      5-min Rain = 0
KHA3 210241Z 16017KT 31/20 A2966 RMK A01 T03140204  RH  052%=      5-min Rain = 0
KHA3 210242Z 16016G21KT 31/21 A2966 RMK A01 T03140205  RH  052%=      5-min Rain = 0
KHA3 210243Z 15018KT 31/21 A2966 RMK A01 T03140205  RH  052%=      5-min Rain = 0
KHA3 210244Z 15017KT 32/21 A2966 RMK A01 T03150205  RH  052%=      5-min Rain = 0
KHA3 210245Z 16016KT 31/20 A2966 RMK A01 T03140204  RH  052%=      5-min Rain = 0
KHA3 210246Z 15016KT 32/21 A2966 RMK A01 T03150205  RH  052%=      5-min Rain = 0
KHA3 210247Z 15016KT 32/21 A2966 RMK A01 T03150206  RH  052%=      5-min Rain = 0
KHA3 210248Z 16016KT 31/21 A2966 RMK A01 T03140205  RH  052%=      5-min Rain = 0
KHA3 210249Z 16014KT 32/21 A2966 RMK A01 T03150205  RH  052%=      5-min Rain = 0
KHA3 210250Z 16017KT 31/21 A2966 RMK A01 T03140205  RH  052%=      5-min Rain = 0
KHA3 210251Z 15017KT 31/21 A2966 RMK A01 T03140206  RH  053%=      5-min Rain = 0
KHA3 210252Z 16016KT 31/21 A2966 RMK A01 T03130206  RH  053%=      5-min Rain = 0
KHA3 210253Z 15014KT 31/21 A2966 RMK A01 T03130206  RH  053%=      5-min Rain = 0
KHA3 210254Z 16016KT 31/21 A2966 RMK A01 T03120205  RH  053%=      5-min Rain = 0
KHA3 210255Z 16017KT 31/21 A2967 RMK A01 T03120206  RH  053%=      5-min Rain = 0
KHA3 210256Z 16016KT 31/21 A2967 RMK A01 T03110205  RH  053%=      5-min Rain = 0
KHA3 210257Z 15016KT 31/21 A2967 RMK A01 T03120205  RH  053%=      5-min Rain = 0
KHA3 210258Z 16016KT 31/21 A2967 RMK A01 T03120205  RH  053%=      5-min Rain = 0
KHA3 210259Z 15016KT 31/21 A2967 RMK A01 T03120205  RH  053%=      5-min Rain = 0
KHA3 210300Z 16017KT 31/21 A2967 RMK A01 T03120205  RH  053%=      5-min Rain = 0
KHA3 210301Z 16016KT 31/21 A2967 RMK A01 T03110205  RH  053%=      5-min Rain = 0
KHA3 210302Z 16016KT 31/21 A2967 RMK A01 T03120205  RH  053%=      5-min Rain = 0
KHA3 210303Z 15016KT 31/21 A2967 RMK A01 T03120205  RH  053%=      5-min Rain = 0
KHA3 210304Z 16015KT 31/21 A2967 RMK A01 T03110205  RH  053%=      5-min Rain = 0
KHA3 210305Z 15017G22KT 31/21 A2967 RMK A01 T03110205  RH  053%=      5-min Rain = 0
KHA3 210306Z 16016KT 31/21 A2967 RMK A01 T03110205  RH  053%=      5-min Rain = 0
KHA3 210307Z 16017KT 31/21 A2967 RMK A01 T03110205  RH  053%=      5-min Rain = 0
KHA3 210308Z 15016KT 31/21 A2967 RMK A01 T03110205  RH  053%=      5-min Rain = 0
KHA3 210309Z 16017KT 31/21 A2967 RMK A01 T03110205  RH  053%=      5-min Rain = 0
KHA3 210310Z 16016KT 31/20 A2967 RMK A01 T03110204  RH  053%=      5-min Rain = 0
KHA3 210311Z 16015KT 31/21 A2967 RMK A01 T03100205  RH  053%=      5-min Rain = 0
KHA3 210312Z 16016KT 31/21 A2967 RMK A01 T03090205  RH  054%=      5-min Rain = 0
KHA3 210313Z 16015KT 31/20 A2967 RMK A01 T03080204  RH  054%=      5-min Rain = 0
KHA3 210314Z 16015KT 31/20 A2967 RMK A01 T03090204  RH  054%=      5-min Rain = 0
KHA3 210315Z 16016KT 31/20 A2967 RMK A01 T03080204  RH  054%=      5-min Rain = 0
KHA3 210316Z 16016KT 31/20 A2967 RMK A01 T03080204  RH  054%=      5-min Rain = 0
KHA3 210317Z 16015KT 31/20 A2967 RMK A01 T03080204  RH  054%=      5-min Rain = 0
KHA3 210318Z 16017KT 31/20 A2967 RMK A01 T03080204  RH  054%=      5-min Rain = 0
KHA3 210319Z 16015KT 31/20 A2967 RMK A01 T03080203  RH  054%=      5-min Rain = 0
KHA3 210320Z 16016KT 31/20 A2967 RMK A01 T03080203  RH  054%=      5-min Rain = 0
KHA3 210321Z 16018KT 31/20 A2967 RMK A01 T03080203  RH  054%=      5-min Rain = 0
KHA3 210322Z 16018KT 31/20 A2967 RMK A01 T03080202  RH  053%=      5-min Rain = 0
KHA3 210323Z 15016G21KT 31/20 A2967 RMK A01 T03090202  RH  053%=      5-min Rain = 0
KHA3 210324Z 16015KT 31/20 A2967 RMK A01 T03090203  RH  053%=      5-min Rain = 0
KHA3 210325Z 16016KT 31/20 A2967 RMK A01 T03090202  RH  053%=      5-min Rain = 0
KHA3 210326Z 16017KT 31/20 A2967 RMK A01 T03080202  RH  053%=      5-min Rain = 0
KHA3 210327Z 16016KT 31/20 A2968 RMK A01 T03080202  RH  053%=      5-min Rain = 0
KHA3 210328Z 16017G23KT 31/20 A2968 RMK A01 T03080202  RH  053%=      5-min Rain = 0
KHA3 210329Z 16017KT 31/20 A2968 RMK A01 T03080202  RH  053%=      5-min Rain = 0
KHA3 210330Z 16016KT 31/20 A2968 RMK A01 T03080202  RH  053%=      5-min Rain = 0
KHA3 210331Z 16018KT 31/20 A2968 RMK A01 T03080201  RH  053%=      5-min Rain = 0
KHA3 210332Z 16017KT 31/20 A2968 RMK A01 T03080201  RH  053%=      5-min Rain = 0
KHA3 210333Z 16017G22KT 31/20 A2968 RMK A01 T03080201  RH  053%=      5-min Rain = 0
KHA3 210334Z 16017KT 31/20 A2968 RMK A01 T03080201  RH  053%=      5-min Rain = 0
KHA3 210335Z 16018KT 31/20 A2968 RMK A01 T03080201  RH  053%=      5-min Rain = 0
KHA3 210336Z 16017KT 31/20 A2968 RMK A01 T03090201  RH  053%=      5-min Rain = 0
KHA3 210337Z 16016KT 31/20 A2968 RMK A01 T03090201  RH  053%=      5-min Rain = 0
KHA3 210338Z 16015KT 31/20 A2968 RMK A01 T03080202  RH  053%=      5-min Rain = 0
KHA3 210339Z 16016KT 31/20 A2968 RMK A01 T03060202  RH  054%=      5-min Rain = 0
KHA3 210340Z 16016G21KT 31/20 A2968 RMK A01 T03060201  RH  054%=      5-min Rain = 0
KHA3 210341Z 16018KT 31/20 A2968 RMK A01 T03060201  RH  054%=      5-min Rain = 0
KHA3 210342Z 16018G24KT 31/20 A2968 RMK A01 T03060201  RH  054%=      5-min Rain = 0
KHA3 210343Z 16016KT 31/20 A2969 RMK A01 T03060201  RH  053%=      5-min Rain = 0
KHA3 210344Z 16015KT 31/20 A2969 RMK A01 T03060202  RH  054%=      5-min Rain = 0
KHA3 210345Z 16016KT 31/20 A2969 RMK A01 T03050202  RH  054%=      5-min Rain = 0
KHA3 210346Z 16016KT 31/20 A2969 RMK A01 T03050203  RH  054%=      5-min Rain = 0
KHA3 210347Z 16017KT 30/20 A2969 RMK A01 T03040202  RH  054%=      5-min Rain = 0
KHA3 210348Z 16016KT 30/20 A2969 RMK A01 T03040202  RH  054%=      5-min Rain = 0
KHA3 210349Z 16016KT 30/20 A2969 RMK A01 T03040202  RH  054%=      5-min Rain = 0
KHA3 210350Z 16017KT 30/20 A2969 RMK A01 T03040202  RH  054%=      5-min Rain = 0
KHA3 210351Z 16016KT 30/20 A2969 RMK A01 T03040202  RH  054%=      5-min Rain = 0
KHA3 210352Z 16015KT 31/20 A2969 RMK A01 T03050203  RH  055%=      5-min Rain = 0
KHA3 210353Z 16015KT 30/20 A2969 RMK A01 T03040203  RH  055%=      5-min Rain = 0
KHA3 210354Z 16015KT 30/20 A2969 RMK A01 T03030203  RH  055%=      5-min Rain = 0
KHA3 210355Z 16018KT 30/20 A2969 RMK A01 T03020203  RH  055%=      5-min Rain = 0
KHA3 210356Z 16015KT 30/20 A2969 RMK A01 T03020203  RH  055%=      5-min Rain = 0
KHA3 210357Z 16014KT 30/20 A2969 RMK A01 T03020203  RH  056%=      5-min Rain = 0
KHA3 210358Z 16014KT 30/20 A2969 RMK A01 T03010204  RH  056%=      5-min Rain = 0
KHA3 210359Z 16016KT 30/20 A2969 RMK A01 T03000204  RH  056%=      5-min Rain = 0
KHA3 210400Z 16015KT 30/20 A2969 RMK A01 T03000203  RH  056%=      5-min Rain = 0
KHA3 210401Z 16016KT 30/20 A2969 RMK A01 T03010203  RH  056%=      5-min Rain = 0
KHA3 210402Z 16014KT 30/20 A2969 RMK A01 T03010204  RH  056%=      5-min Rain = 0
KHA3 210403Z 16014KT 30/20 A2969 RMK A01 T03000204  RH  057%=      5-min Rain = 0
KHA3 210404Z 16016KT 30/20 A2969 RMK A01 T02990204  RH  057%=      5-min Rain = 0
KHA3 210405Z 16015KT 30/20 A2969 RMK A01 T02990204  RH  057%=      5-min Rain = 0
KHA3 210406Z 16014KT 30/20 A2969 RMK A01 T02990204  RH  057%=      5-min Rain = 0
KHA3 210407Z 16013KT 30/21 A2969 RMK A01 T02980205  RH  057%=      5-min Rain = 0
KHA3 210408Z 16015KT 30/21 A2969 RMK A01 T02970205  RH  057%=      5-min Rain = 0
KHA3 210409Z 16014KT 30/21 A2969 RMK A01 T02970205  RH  058%=      5-min Rain = 0
KHA3 210410Z 16015KT 30/21 A2969 RMK A01 T02970205  RH  058%=      5-min Rain = 0
KHA3 210411Z 16014KT 30/21 A2969 RMK A01 T02970205  RH  058%=      5-min Rain = 0
KHA3 210412Z 16015KT 30/21 A2969 RMK A01 T02970205  RH  058%=      5-min Rain = 0
KHA3 210413Z 16014KT 30/21 A2969 RMK A01 T02970205  RH  058%=      5-min Rain = 0
KHA3 210414Z 16015KT 30/21 A2969 RMK A01 T02970205  RH  058%=      5-min Rain = 0
KHA3 210415Z 17015KT 30/21 A2969 RMK A01 T02970205  RH  058%=      5-min Rain = 0
KHA3 210416Z 17015KT 30/21 A2969 RMK A01 T02970206  RH  058%=      5-min Rain = 0
KHA3 210417Z 17016KT 30/21 A2969 RMK A01 T02950206  RH  059%=      5-min Rain = 0
KHA3 210418Z 17015KT 30/21 A2969 RMK A01 T02950206  RH  059%=      5-min Rain = 0
KHA3 210419Z 16014KT 29/21 A2969 RMK A01 T02940206  RH  059%=      5-min Rain = 0
KHA3 210420Z 16014KT 29/21 A2969 RMK A01 T02940206  RH  059%=      5-min Rain = 0
KHA3 210421Z 17015G20KT 29/21 A2969 RMK A01 T02930206  RH  060%=      5-min Rain = 0
KHA3 210422Z 16014KT 29/21 A2969 RMK A01 T02930206  RH  060%=      5-min Rain = 0
KHA3 210423Z 16015KT 29/21 A2969 RMK A01 T02930206  RH  059%=      5-min Rain = 0
KHA3 210424Z 16015KT 29/21 A2969 RMK A01 T02930206  RH  059%=      5-min Rain = 0
KHA3 210425Z 16015KT 29/21 A2969 RMK A01 T02930206  RH  059%=      5-min Rain = 0
KHA3 210426Z 16015KT 29/21 A2969 RMK A01 T02940207  RH  060%=      5-min Rain = 0
KHA3 210427Z 16014KT 29/21 A2969 RMK A01 T02930207  RH  060%=      5-min Rain = 0
KHA3 210428Z 17013KT 29/21 A2969 RMK A01 T02930207  RH  060%=      5-min Rain = 0
KHA3 210429Z 16015KT 29/21 A2969 RMK A01 T02920207  RH  060%=      5-min Rain = 0
KHA3 210430Z 16015KT 29/21 A2969 RMK A01 T02910207  RH  060%=      5-min Rain = 0
KHA3 210431Z 16014KT 29/21 A2969 RMK A01 T02910207  RH  060%=      5-min Rain = 0
KHA3 210432Z 16014KT 29/21 A2969 RMK A01 T02910207  RH  060%=      5-min Rain = 0
KHA3 210433Z 16015KT 29/21 A2969 RMK A01 T02910207  RH  061%=      5-min Rain = 0
KHA3 210434Z 16013KT 29/21 A2969 RMK A01 T02910207  RH  061%=      5-min Rain = 0
KHA3 210435Z 16014KT 29/21 A2969 RMK A01 T02900207  RH  061%=      5-min Rain = 0
KHA3 210436Z 16014KT 29/21 A2969 RMK A01 T02900208  RH  061%=      5-min Rain = 0
KHA3 210437Z 17016KT 29/21 A2969 RMK A01 T02900207  RH  061%=      5-min Rain = 0
KHA3 210438Z 16014KT 29/21 A2969 RMK A01 T02900207  RH  061%=      5-min Rain = 0
KHA3 210439Z 17014KT 29/21 A2969 RMK A01 T02900208  RH  061%=      5-min Rain = 0
KHA3 210440Z 16014KT 29/21 A2969 RMK A01 T02890208  RH  061%=      5-min Rain = 0
KHA3 210441Z 16014KT 29/21 A2969 RMK A01 T02880208  RH  062%=      5-min Rain = 0
KHA3 210442Z 17015KT 29/21 A2969 RMK A01 T02880208  RH  062%=      5-min Rain = 0
KHA3 210443Z 17016KT 29/21 A2969 RMK A01 T02880208  RH  062%=      5-min Rain = 0
KHA3 210444Z 16014G19KT 29/21 A2969 RMK A01 T02880208  RH  062%=      5-min Rain = 0
KHA3 210445Z 17016G21KT 29/21 A2969 RMK A01 T02880208  RH  062%=      5-min Rain = 0
KHA3 210446Z 17016KT 29/21 A2969 RMK A01 T02880208  RH  062%=      5-min Rain = 0
KHA3 210447Z 17015KT 29/21 A2969 RMK A01 T02890208  RH  062%=      5-min Rain = 0
KHA3 210448Z 17016G21KT 29/21 A2969 RMK A01 T02900208  RH  061%=      5-min Rain = 0
KHA3 210449Z 17016KT 29/21 A2969 RMK A01 T02900208  RH  061%=      5-min Rain = 0
KHA3 210450Z 17017KT 29/21 A2969 RMK A01 T02910208  RH  061%=      5-min Rain = 0
KHA3 210451Z 17016KT 29/21 A297 RMK A01 T02920208  RH  060%=      5-min Rain = 0
KHA3 210452Z 17015KT 29/21 A2969 RMK A01 T02930208  RH  060%=      5-min Rain = 0
KHA3 210453Z 17015KT 29/21 A2969 RMK A01 T02930208  RH  060%=      5-min Rain = 0
KHA3 210454Z 17016G21KT 29/21 A2969 RMK A01 T02930208  RH  060%=      5-min Rain = 0
KHA3 210455Z 17015KT 29/21 A297 RMK A01 T02940208  RH  060%=      5-min Rain = 0
KHA3 210456Z 17017KT 29/21 A297 RMK A01 T02940209  RH  060%=      5-min Rain = 0
KHA3 210457Z 18016G21KT 29/21 A297 RMK A01 T02940208  RH  060%=      5-min Rain = 0
KHA3 210458Z 18016KT 30/21 A297 RMK A01 T02950208  RH  059%=      5-min Rain = 0
KHA3 210459Z 17016KT 30/21 A297 RMK A01 T02970208  RH  059%=      5-min Rain = 0

Page generated in 0.0781 seconds.